Time,TemperatureF,DewpointF,PressureIn,WindDirection,WindDirectionDegrees,WindSpeedMPH,WindSpeedGustMPH,Humidity,HourlyPrecipIn,Conditions,Clouds,dailyrainin,SoftwareType,DateUTC
2013-09-13 00:01:00,63.3,56.0,29.94,ESE,114,5.8,5.8,77,0.00,SCT,,0.00,WeatherDisplay:10.37,2013-09-13 07:01:00,
2013-09-13 00:02:00,63.3,56.0,29.94,ESE,114,5.8,5.8,77,0.00,SCT,,0.00,WeatherDisplay:10.37,2013-09-13 07:02:00,
2013-09-13 00:03:00,63.2,55.9,29.94,SE,140,3.5,3.5,77,0.00,SCT,,0.00,WeatherDisplay:10.37,2013-09-13 07:03:00,
2013-09-13 00:04:00,63.2,55.9,29.94,SE,128,3.5,3.5,77,0.00,SCT,,0.00,WeatherDisplay:10.37,2013-09-13 07:04:00,
2013-09-13 00:07:00,63.2,55.9,29.94,SW,222,1.2,0.0,77,0.00,SCT,,0.00,WeatherDisplay:10.37,2013-09-13 07:07:00,
2013-09-13 00:09:00,63.2,55.9,29.94,NE,56,3.5,3.5,77,0.00,SCT,,0.00,WeatherDisplay:10.37,2013-09-13 07:09:00,
2013-09-13 00:10:00,63.2,55.9,29.94,ENE,76,1.0,0.0,77,0.00,SCT,,0.00,WeatherDisplay:10.37,2013-09-13 07:10:00,
2013-09-13 00:12:00,63.2,55.9,29.94,East,82,3.5,3.5,77,0.00,SCT,,0.00,WeatherDisplay:10.37,2013-09-13 07:12:00,
2013-09-13 00:14:00,63.2,55.9,29.94,East,82,1.0,1.0,77,0.00,SCT,,0.00,WeatherDisplay:10.37,2013-09-13 07:14:00,
2013-09-13 00:15:00,63.2,55.9,29.94,ENE,75,0.0,3.0,77,0.00,SCT,,0.00,WeatherDisplay:10.37,2013-09-13 07:15:00,
2013-09-13 00:16:00,63.2,55.9,29.94,ESE,123,1.2,1.2,77,0.00,SCT,,0.00,WeatherDisplay:10.37,2013-09-13 07:16:00,
2013-09-13 00:17:00,63.2,55.9,29.93,SE,130,3.5,3.5,77,0.00,SCT,,0.00,WeatherDisplay:10.37,2013-09-13 07:17:00,
2013-09-13 00:18:00,63.2,55.9,29.93,SE,130,3.5,3.5,77,0.00,SCT,,0.00,WeatherDisplay:10.37,2013-09-13 07:18:00,
2013-09-13 00:19:00,63.2,55.9,29.93,SE,129,1.2,1.2,77,0.00,SCT,,0.00,WeatherDisplay:10.37,2013-09-13 07:19:00,
2013-09-13 00:20:00,63.2,55.9,29.93,SE,128,1.2,1.2,77,0.00,SCT,,0.00,WeatherDisplay:10.37,2013-09-13 07:20:00,
2013-09-13 00:21:00,63.1,55.8,29.93,SE,135,5.8,5.8,77,0.00,SCT,,0.00,WeatherDisplay:10.37,2013-09-13 07:21:00,
2013-09-13 00:22:00,63.1,55.8,29.93,SE,135,3.5,3.5,77,0.00,SCT,,0.00,WeatherDisplay:10.37,2013-09-13 07:22:00,
2013-09-13 00:23:00,63.1,55.8,29.93,SSW,195,3.5,3.5,77,0.00,SCT,,0.00,WeatherDisplay:10.37,2013-09-13 07:23:00,
2013-09-13 00:25:00,63.1,55.8,29.93,SE,124,3.5,3.5,77,0.00,SCT,,0.00,WeatherDisplay:10.37,2013-09-13 07:25:00,
2013-09-13 00:26:00,63.2,55.9,29.93,ESE,120,3.5,3.5,77,0.00,SCT,,0.00,WeatherDisplay:10.37,2013-09-13 07:26:00,
2013-09-13 00:28:00,63.2,55.9,29.93,ESE,120,1.2,1.2,77,0.00,SCT,,0.00,WeatherDisplay:10.37,2013-09-13 07:28:00,
2013-09-13 00:29:00,63.2,55.9,29.93,ESE,120,1.2,1.2,77,0.00,SCT,,0.00,WeatherDisplay:10.37,2013-09-13 07:29:00,
2013-09-13 00:31:00,63.2,55.9,29.93,SE,124,3.5,3.5,77,0.00,SCT,,0.00,WeatherDisplay:10.37,2013-09-13 07:31:00,
2013-09-13 00:32:00,63.1,55.8,29.94,ESE,123,3.5,3.5,77,0.00,SCT,,0.00,WeatherDisplay:10.37,2013-09-13 07:32:00,
2013-09-13 00:33:00,63.1,55.8,29.93,SE,138,3.5,3.5,77,0.00,SCT,,0.00,WeatherDisplay:10.37,2013-09-13 07:33:00,
2013-09-13 00:34:00,63.1,55.8,29.93,ESE,112,2.3,2.3,77,0.00,SCT,,0.00,WeatherDisplay:10.37,2013-09-13 07:34:00,
2013-09-13 00:36:00,63.0,56.0,29.93,SE,145,3.5,3.5,78,0.00,SCT,,0.00,WeatherDisplay:10.37,2013-09-13 07:36:00,
2013-09-13 00:37:00,63.0,55.7,29.93,SE,145,2.3,2.3,77,0.00,SCT,,0.00,WeatherDisplay:10.37,2013-09-13 07:37:00,
2013-09-13 00:38:00,63.0,55.7,29.93,SE,145,0.0,0.0,77,0.00,SCT,,0.00,WeatherDisplay:10.37,2013-09-13 07:38:00,
2013-09-13 00:41:00,63.0,55.7,29.93,SE,137,3.5,3.5,77,0.00,SCT,,0.00,WeatherDisplay:10.37,2013-09-13 07:41:00,
2013-09-13 00:42:00,63.0,55.7,29.93,SE,137,3.5,3.5,77,0.00,SCT,,0.00,WeatherDisplay:10.37,2013-09-13 07:42:00,
2013-09-13 00:43:00,63.1,55.8,29.93,WSW,242,0.0,0.0,77,0.00,SCT,,0.00,WeatherDisplay:10.37,2013-09-13 07:43:00,
2013-09-13 00:44:00,63.1,55.8,29.93,SE,136,2.0,2.0,77,0.00,SCT,,0.00,WeatherDisplay:10.37,2013-09-13 07:44:00,
2013-09-13 00:47:00,63.1,55.8,29.93,SE,145,2.3,2.3,77,0.00,SCT,,0.00,WeatherDisplay:10.37,2013-09-13 07:47:00,
2013-09-13 00:49:00,63.1,55.8,29.93,SE,131,1.2,1.2,77,0.00,SCT,,0.00,WeatherDisplay:10.37,2013-09-13 07:49:00,
2013-09-13 00:50:00,63.1,55.8,29.93,SE,131,3.5,3.5,77,0.00,SCT,,0.00,WeatherDisplay:10.37,2013-09-13 07:50:00,
2013-09-13 00:52:00,63.0,55.7,29.93,SE,130,6.9,6.9,77,0.00,SCT,,0.00,WeatherDisplay:10.37,2013-09-13 07:52:00,
2013-09-13 00:53:00,63.0,55.7,29.93,ESE,105,6.9,6.9,77,0.00,SCT,,0.00,WeatherDisplay:10.37,2013-09-13 07:53:00,
2013-09-13 00:54:00,63.0,55.7,29.93,East,97,2.3,2.3,77,0.00,SCT,,0.00,WeatherDisplay:10.37,2013-09-13 07:54:00,
2013-09-13 00:55:00,63.0,55.7,29.93,East,95,2.3,2.3,77,0.00,SCT,,0.00,WeatherDisplay:10.37,2013-09-13 07:55:00,
2013-09-13 00:57:00,63.0,55.7,29.93,ESE,119,3.5,3.5,77,0.00,SCT,,0.00,WeatherDisplay:10.37,2013-09-13 07:57:00,
2013-09-13 00:58:00,63.0,55.7,29.93,SE,127,3.5,3.5,77,0.00,SCT,,0.00,WeatherDisplay:10.37,2013-09-13 07:58:00,
2013-09-13 00:59:00,62.9,55.6,29.92,SE,128,1.2,1.2,77,0.00,SCT,,0.00,WeatherDisplay:10.37,2013-09-13 07:59:00,
2013-09-13 01:00:00,62.9,55.6,29.92,SE,128,2.0,2.0,77,0.00,SCT,,0.00,WeatherDisplay:10.37,2013-09-13 08:00:00,
2013-09-13 01:01:00,62.9,55.6,29.92,SE,125,1.2,1.2,77,0.00,SCT,,0.00,WeatherDisplay:10.37,2013-09-13 08:01:00,
2013-09-13 01:03:00,62.8,55.8,29.92,SE,125,0.0,0.0,78,0.00,SCT,,0.00,WeatherDisplay:10.37,2013-09-13 08:03:00,
2013-09-13 01:04:00,62.9,55.6,29.92,SE,125,0.0,0.0,77,0.00,SCT,,0.00,WeatherDisplay:10.37,2013-09-13 08:04:00,
2013-09-13 01:06:00,62.9,55.6,29.92,East,87,1.2,1.2,77,0.00,SCT,,0.00,WeatherDisplay:10.37,2013-09-13 08:06:00,
2013-09-13 01:08:00,62.9,55.6,29.92,SE,133,0.0,0.1,77,0.00,SCT,,0.00,WeatherDisplay:10.37,2013-09-13 08:08:00,
2013-09-13 01:09:00,62.9,55.6,29.92,SE,131,2.0,2.0,77,0.00,SCT,,0.00,WeatherDisplay:10.37,2013-09-13 08:09:00,
2013-09-13 01:11:00,62.9,55.6,29.93,SE,124,2.3,2.3,77,0.00,SCT,,0.00,WeatherDisplay:10.37,2013-09-13 08:11:00,
2013-09-13 01:12:00,62.9,55.6,29.93,ESE,122,2.3,2.3,77,0.00,SCT,,0.00,WeatherDisplay:10.37,2013-09-13 08:12:00,
2013-09-13 01:13:00,62.9,55.6,29.93,SE,124,2.3,2.3,77,0.00,SCT,,0.00,WeatherDisplay:10.37,2013-09-13 08:13:00,
2013-09-13 01:14:00,62.9,55.6,29.93,ESE,112,3.5,3.5,77,0.00,SCT,,0.00,WeatherDisplay:10.37,2013-09-13 08:14:00,
2013-09-13 01:15:00,62.9,55.6,29.92,ESE,112,1.2,0.0,77,0.00,SCT,,0.00,WeatherDisplay:10.37,2013-09-13 08:15:00,
2013-09-13 01:16:00,62.9,55.6,29.92,ESE,112,1.2,0.0,77,0.00,SCT,,0.00,WeatherDisplay:10.37,2013-09-13 08:16:00,
2013-09-13 01:17:00,62.9,55.6,29.92,SE,135,2.0,2.0,77,0.00,SCT,,0.00,WeatherDisplay:10.37,2013-09-13 08:17:00,
2013-09-13 01:18:00,62.9,55.6,29.92,SSE,166,3.5,3.5,77,0.00,SCT,,0.00,WeatherDisplay:10.37,2013-09-13 08:18:00,
2013-09-13 01:21:00,62.8,55.5,29.93,SE,138,4.0,4.0,77,0.00,SCT,,0.00,WeatherDisplay:10.37,2013-09-13 08:21:00,
2013-09-13 01:23:00,62.8,55.5,29.93,East,99,4.6,4.6,77,0.00,SCT,,0.00,WeatherDisplay:10.37,2013-09-13 08:23:00,
2013-09-13 01:24:00,62.8,55.5,29.92,East,99,0.0,0.0,77,0.00,SCT,,0.00,WeatherDisplay:10.37,2013-09-13 08:24:00,
2013-09-13 01:26:00,62.8,55.5,29.92,SSW,200,2.3,2.3,77,0.00,SCT,,0.00,WeatherDisplay:10.37,2013-09-13 08:26:00,
2013-09-13 01:27:00,62.8,55.5,29.92,SSE,166,2.3,2.3,77,0.00,SCT,,0.00,WeatherDisplay:10.37,2013-09-13 08:27:00,
2013-09-13 01:28:00,62.7,55.4,29.93,SSE,150,3.5,3.5,77,0.00,SCT,,0.00,WeatherDisplay:10.37,2013-09-13 08:28:00,
2013-09-13 01:29:00,62.7,55.4,29.93,SE,143,3.5,3.5,77,0.00,SCT,,0.00,WeatherDisplay:10.37,2013-09-13 08:29:00,
2013-09-13 01:30:00,62.7,55.4,29.92,SE,134,3.5,3.5,77,0.00,SCT,,0.00,WeatherDisplay:10.37,2013-09-13 08:30:00,
2013-09-13 01:31:00,62.7,55.4,29.93,SE,127,3.5,3.5,77,0.00,SCT,,0.00,WeatherDisplay:10.37,2013-09-13 08:31:00,
2013-09-13 01:32:00,62.7,55.4,29.92,SE,127,3.5,3.5,77,0.00,SCT,,0.00,WeatherDisplay:10.37,2013-09-13 08:32:00,
2013-09-13 01:33:00,62.6,55.3,29.92,SE,143,5.0,5.0,77,0.00,SCT,,0.00,WeatherDisplay:10.37,2013-09-13 08:33:00,
2013-09-13 01:34:00,62.6,55.6,29.92,East,94,5.8,5.8,78,0.00,SCT,,0.00,WeatherDisplay:10.37,2013-09-13 08:34:00,
2013-09-13 01:35:00,62.5,55.5,29.92,SE,143,4.6,4.6,78,0.00,SCT,,0.00,WeatherDisplay:10.37,2013-09-13 08:35:00,
2013-09-13 01:37:00,62.5,55.5,29.93,SE,142,5.8,5.8,78,0.00,SCT,,0.00,WeatherDisplay:10.37,2013-09-13 08:37:00,
2013-09-13 01:38:00,62.4,55.4,29.93,South,178,5.8,5.8,78,0.00,SCT,,0.00,WeatherDisplay:10.37,2013-09-13 08:38:00,
2013-09-13 01:40:00,62.4,55.4,29.93,East,88,3.5,3.5,78,0.00,SCT,,0.00,WeatherDisplay:10.37,2013-09-13 08:40:00,
2013-09-13 01:42:00,62.3,55.4,29.93,East,87,1.2,1.2,78,0.00,SCT,,0.00,WeatherDisplay:10.37,2013-09-13 08:42:00,
2013-09-13 01:44:00,62.3,55.4,29.93,SSE,149,3.5,3.5,78,0.00,SCT,,0.00,WeatherDisplay:10.37,2013-09-13 08:44:00,
2013-09-13 01:45:00,62.3,55.4,29.93,WSW,241,1.2,1.2,78,0.00,SCT,,0.00,WeatherDisplay:10.37,2013-09-13 08:45:00,
2013-09-13 01:46:00,62.3,55.4,29.93,SE,143,2.0,2.0,78,0.00,SCT,,0.00,WeatherDisplay:10.37,2013-09-13 08:46:00,
2013-09-13 01:48:00,62.2,55.3,29.93,SE,134,3.5,3.5,78,0.00,SCT,,0.00,WeatherDisplay:10.37,2013-09-13 08:48:00,
2013-09-13 01:49:00,62.2,55.3,29.92,SE,124,5.0,5.0,78,0.00,SCT,,0.00,WeatherDisplay:10.37,2013-09-13 08:49:00,
2013-09-13 01:51:00,62.2,55.3,29.93,SE,129,3.5,3.5,78,0.00,SCT,,0.00,WeatherDisplay:10.37,2013-09-13 08:51:00,
2013-09-13 01:53:00,62.2,55.3,29.93,SE,126,3.5,3.5,78,0.00,SCT,,0.00,WeatherDisplay:10.37,2013-09-13 08:53:00,
2013-09-13 01:54:00,62.2,55.3,29.93,SE,145,2.3,2.3,78,0.00,SCT,,0.00,WeatherDisplay:10.37,2013-09-13 08:54:00,
2013-09-13 01:55:00,62.2,55.3,29.93,SSE,167,3.5,3.5,78,0.00,SCT,,0.00,WeatherDisplay:10.37,2013-09-13 08:55:00,
2013-09-13 01:57:00,62.1,55.2,29.93,South,187,3.5,3.5,78,0.00,SCT,,0.00,WeatherDisplay:10.37,2013-09-13 08:57:00,
2013-09-13 01:58:00,62.2,55.3,29.93,SE,141,3.5,3.5,78,0.00,SCT,,0.00,WeatherDisplay:10.37,2013-09-13 08:58:00,
2013-09-13 01:59:00,62.2,55.3,29.93,SE,141,3.5,3.5,78,0.00,SCT,,0.00,WeatherDisplay:10.37,2013-09-13 08:59:00,
2013-09-13 02:01:00,62.2,55.3,29.93,ENE,71,3.5,3.5,78,0.00,SCT,,0.00,WeatherDisplay:10.37,2013-09-13 09:01:00,
2013-09-13 02:02:00,62.2,55.3,29.93,ENE,71,3.5,3.5,78,0.00,SCT,,0.00,WeatherDisplay:10.37,2013-09-13 09:02:00,
2013-09-13 02:04:00,62.1,55.2,29.93,SE,137,3.5,3.5,78,0.00,SCT,,0.00,WeatherDisplay:10.37,2013-09-13 09:04:00,
2013-09-13 02:05:00,62.2,55.3,29.93,SE,135,3.5,3.5,78,0.00,SCT,,0.00,WeatherDisplay:10.37,2013-09-13 09:05:00,
2013-09-13 02:07:00,62.2,55.3,29.93,NE,48,1.2,1.2,78,0.00,SCT,,0.00,WeatherDisplay:10.37,2013-09-13 09:07:00,
2013-09-13 02:08:00,62.1,55.2,29.93,ESE,111,3.5,3.5,78,0.00,SCT,,0.00,WeatherDisplay:10.37,2013-09-13 09:08:00,
2013-09-13 02:09:00,62.1,55.2,29.93,East,97,5.0,5.0,78,0.00,SCT,,0.00,WeatherDisplay:10.37,2013-09-13 09:09:00,
2013-09-13 02:10:00,62.1,55.2,29.93,ESE,123,6.0,6.0,78,0.00,SCT,,0.00,WeatherDisplay:10.37,2013-09-13 09:10:00,
2013-09-13 02:12:00,62.1,55.2,29.93,SSE,148,3.0,3.0,78,0.00,SCT,,0.00,WeatherDisplay:10.37,2013-09-13 09:12:00,
2013-09-13 02:13:00,62.1,55.2,29.93,East,92,3.5,3.5,78,0.00,SCT,,0.00,WeatherDisplay:10.37,2013-09-13 09:13:00,
2013-09-13 02:14:00,62.1,55.2,29.93,SE,134,3.5,0.0,78,0.00,SCT,,0.00,WeatherDisplay:10.37,2013-09-13 09:14:00,
2013-09-13 02:15:00,62.1,55.2,29.93,SE,134,1.2,1.2,78,0.00,SCT,,0.00,WeatherDisplay:10.37,2013-09-13 09:15:00,
2013-09-13 02:18:00,62.1,55.2,29.93,ESE,113,4.6,4.6,78,0.00,SCT,,0.00,WeatherDisplay:10.37,2013-09-13 09:18:00,
2013-09-13 02:20:00,62.1,55.2,29.93,South,169,4.6,4.6,78,0.00,SCT,,0.00,WeatherDisplay:10.37,2013-09-13 09:20:00,
2013-09-13 02:23:00,62.0,55.1,29.93,SE,138,3.5,3.5,78,0.00,SCT,,0.00,WeatherDisplay:10.37,2013-09-13 09:23:00,
2013-09-13 02:24:00,62.0,55.1,29.93,SE,138,3.5,3.5,78,0.00,SCT,,0.00,WeatherDisplay:10.37,2013-09-13 09:24:00,
2013-09-13 02:25:00,62.0,55.1,29.93,SSE,161,2.3,2.3,78,0.00,SCT,,0.00,WeatherDisplay:10.37,2013-09-13 09:25:00,
2013-09-13 02:29:00,62.0,55.1,29.93,ESE,114,3.5,3.5,78,0.00,SCT,,0.00,WeatherDisplay:10.37,2013-09-13 09:29:00,
2013-09-13 02:30:00,62.0,55.1,29.93,ESE,107,4.0,4.0,78,0.00,SCT,,0.00,WeatherDisplay:10.37,2013-09-13 09:30:00,
2013-09-13 02:31:00,61.9,55.0,29.93,SE,132,3.5,3.5,78,0.00,SCT,,0.00,WeatherDisplay:10.37,2013-09-13 09:31:00,
2013-09-13 02:34:00,61.9,55.0,29.93,SE,128,3.0,3.0,78,0.00,SCT,,0.00,WeatherDisplay:10.37,2013-09-13 09:34:00,
2013-09-13 02:35:00,61.9,55.0,29.93,South,187,3.5,3.5,78,0.00,SCT,,0.00,WeatherDisplay:10.37,2013-09-13 09:35:00,
2013-09-13 02:37:00,61.9,55.0,29.93,SE,129,5.0,5.0,78,0.00,SCT,,0.00,WeatherDisplay:10.37,2013-09-13 09:37:00,
2013-09-13 02:39:00,61.9,55.0,29.93,ESE,102,5.8,5.8,78,0.00,SCT,,0.00,WeatherDisplay:10.37,2013-09-13 09:39:00,
2013-09-13 02:40:00,61.9,55.0,29.93,ENE,73,6.9,6.9,78,0.00,SCT,,0.00,WeatherDisplay:10.37,2013-09-13 09:40:00,
2013-09-13 02:41:00,61.9,55.0,29.93,ESE,116,6.9,6.9,78,0.00,SCT,,0.00,WeatherDisplay:10.37,2013-09-13 09:41:00,
2013-09-13 02:44:00,61.8,54.9,29.93,ESE,104,5.8,5.8,78,0.00,SCT,,0.00,WeatherDisplay:10.37,2013-09-13 09:44:00,
2013-09-13 02:45:00,61.8,54.9,29.93,ESE,121,4.6,4.6,78,0.00,SCT,,0.00,WeatherDisplay:10.37,2013-09-13 09:45:00,
2013-09-13 02:47:00,61.8,54.9,29.93,SE,137,4.6,4.6,78,0.00,SCT,,0.00,WeatherDisplay:10.37,2013-09-13 09:47:00,
2013-09-13 02:48:00,61.8,54.9,29.93,ESE,115,4.6,4.6,78,0.00,SCT,,0.00,WeatherDisplay:10.37,2013-09-13 09:48:00,
2013-09-13 02:50:00,61.8,54.9,29.93,SE,136,6.9,6.9,78,0.00,SCT,,0.00,WeatherDisplay:10.37,2013-09-13 09:50:00,
2013-09-13 02:51:00,61.8,54.9,29.93,SE,135,5.8,5.8,78,0.00,SCT,,0.00,WeatherDisplay:10.37,2013-09-13 09:51:00,
2013-09-13 02:53:00,61.8,54.9,29.93,East,86,6.9,6.9,78,0.00,SCT,,0.00,WeatherDisplay:10.37,2013-09-13 09:53:00,
2013-09-13 02:55:00,61.7,54.8,29.93,SE,124,1.0,7.0,78,0.00,SCT,,0.00,WeatherDisplay:10.37,2013-09-13 09:55:00,
2013-09-13 02:57:00,61.7,54.8,29.92,SSE,148,4.0,4.0,78,0.00,SCT,,0.00,WeatherDisplay:10.37,2013-09-13 09:57:00,
2013-09-13 02:58:00,61.7,54.8,29.93,ESE,102,5.8,5.8,78,0.00,SCT,,0.00,WeatherDisplay:10.37,2013-09-13 09:58:00,
2013-09-13 03:00:00,61.7,54.8,29.92,ESE,118,1.0,7.0,78,0.00,SCT,,0.00,WeatherDisplay:10.37,2013-09-13 10:00:00,
2013-09-13 03:02:00,61.7,55.1,29.93,SSE,154,4.6,4.6,79,0.00,SCT,,0.00,WeatherDisplay:10.37,2013-09-13 10:02:00,
2013-09-13 03:05:00,61.7,55.1,29.92,SSE,152,5.8,5.8,79,0.00,SCT,,0.00,WeatherDisplay:10.37,2013-09-13 10:05:00,
2013-09-13 03:06:00,61.7,55.1,29.92,SSE,165,5.8,5.8,79,0.00,SCT,,0.00,WeatherDisplay:10.37,2013-09-13 10:06:00,
2013-09-13 03:07:00,61.8,55.2,29.92,ESE,103,4.6,4.6,79,0.00,SCT,,0.00,WeatherDisplay:10.37,2013-09-13 10:07:00,
2013-09-13 03:09:00,61.7,55.1,29.93,SE,124,3.5,3.5,79,0.00,SCT,,0.00,WeatherDisplay:10.37,2013-09-13 10:09:00,
2013-09-13 03:12:00,61.6,55.0,29.92,East,90,6.0,6.0,79,0.00,SCT,,0.00,WeatherDisplay:10.37,2013-09-13 10:12:00,
2013-09-13 03:13:00,61.6,55.0,29.92,SE,131,5.8,5.8,79,0.00,SCT,,0.00,WeatherDisplay:10.37,2013-09-13 10:13:00,
2013-09-13 03:15:00,61.5,54.9,29.92,SE,125,3.5,3.5,79,0.00,SCT,,0.00,WeatherDisplay:10.37,2013-09-13 10:15:00,
2013-09-13 03:17:00,61.5,54.9,29.92,SE,125,0.0,0.0,79,0.00,SCT,,0.00,WeatherDisplay:10.37,2013-09-13 10:17:00,
2013-09-13 03:18:00,61.6,55.0,29.92,SE,125,0.0,0.0,79,0.00,SCT,,0.00,WeatherDisplay:10.37,2013-09-13 10:18:00,
2013-09-13 03:20:00,61.5,54.6,29.92,SSE,150,6.9,6.9,78,0.00,SCT,,0.00,WeatherDisplay:10.37,2013-09-13 10:20:00,
2013-09-13 03:23:00,61.4,54.5,29.92,SE,133,3.5,3.5,78,0.00,SCT,,0.00,WeatherDisplay:10.37,2013-09-13 10:23:00,
2013-09-13 03:25:00,61.4,54.5,29.92,South,191,2.3,2.3,78,0.00,SCT,,0.00,WeatherDisplay:10.37,2013-09-13 10:25:00,
2013-09-13 03:29:00,61.3,54.7,29.92,ESE,104,9.2,9.2,79,0.00,SCT,,0.00,WeatherDisplay:10.37,2013-09-13 10:29:00,
2013-09-13 03:30:00,61.3,54.7,29.92,ESE,119,1.0,9.0,79,0.00,SCT,,0.00,WeatherDisplay:10.37,2013-09-13 10:30:00,
2013-09-13 07:21:00,60.6,54.4,29.92,SE,130,8.1,8.1,80,0.00,SCT,,0.00,WeatherDisplay:10.37,2013-09-13 14:21:00,
2013-09-13 07:22:00,60.6,54.4,29.92,SE,131,3.5,3.5,80,0.00,SCT,,0.00,WeatherDisplay:10.37,2013-09-13 14:22:00,
2013-09-13 07:24:00,60.7,54.5,29.92,SSE,150,3.5,3.5,80,0.00,SCT,,0.00,WeatherDisplay:10.37,2013-09-13 14:24:00,
2013-09-13 07:25:00,60.7,54.5,29.92,SSE,150,0.0,0.0,80,0.00,SCT,,0.00,WeatherDisplay:10.37,2013-09-13 14:25:00,
2013-09-13 07:26:00,60.7,54.1,29.92,SSE,150,0.0,0.0,79,0.00,SCT,,0.00,WeatherDisplay:10.37,2013-09-13 14:26:00,
2013-09-13 07:27:00,60.7,54.1,29.93,SSE,150,0.0,0.0,79,0.00,SCT,,0.00,WeatherDisplay:10.37,2013-09-13 14:27:00,
2013-09-13 07:28:00,60.7,54.1,29.92,SSE,150,0.0,0.0,79,0.00,SCT,,0.00,WeatherDisplay:10.37,2013-09-13 14:28:00,
2013-09-13 07:30:00,60.7,54.5,29.92,SW,228,1.2,1.2,80,0.00,SCT,,0.00,WeatherDisplay:10.37,2013-09-13 14:30:00,
2013-09-13 07:31:00,60.6,54.0,29.92,SW,228,1.2,0.0,79,0.00,SCT,,0.00,WeatherDisplay:10.37,2013-09-13 14:31:00,
2013-09-13 07:32:00,60.6,54.4,29.92,SW,228,0.0,0.0,80,0.00,SCT,,0.00,WeatherDisplay:10.37,2013-09-13 14:32:00,
2013-09-13 07:33:00,60.5,54.3,29.93,SW,228,0.0,0.0,80,0.00,SCT,,0.00,WeatherDisplay:10.37,2013-09-13 14:33:00,
2013-09-13 07:35:00,60.6,54.4,29.92,SW,228,0.0,0.0,80,0.00,SCT,,0.00,WeatherDisplay:10.37,2013-09-13 14:35:00,
2013-09-13 07:37:00,60.6,54.4,29.92,South,189,3.5,3.5,80,0.00,SCT,,0.00,WeatherDisplay:10.37,2013-09-13 14:37:00,
2013-09-13 07:38:00,60.5,54.3,29.93,ESE,114,3.5,3.5,80,0.00,SCT,,0.00,WeatherDisplay:10.37,2013-09-13 14:38:00,
2013-09-13 07:40:00,60.5,54.3,29.92,ESE,102,1.2,0.0,80,0.00,SCT,,0.00,WeatherDisplay:10.37,2013-09-13 14:40:00,
2013-09-13 07:42:00,60.6,54.4,29.92,SE,129,3.5,3.5,80,0.00,SCT,,0.00,WeatherDisplay:10.37,2013-09-13 14:42:00,
2013-09-13 07:43:00,60.6,54.4,29.93,SE,139,1.2,0.0,80,0.00,SCT,,0.00,WeatherDisplay:10.37,2013-09-13 14:43:00,
2013-09-13 07:44:00,60.6,54.4,29.92,SE,139,1.2,1.2,80,0.00,SCT,,0.00,WeatherDisplay:10.37,2013-09-13 14:44:00,
2013-09-13 07:45:00,60.6,54.4,29.93,SE,127,1.2,1.2,80,0.00,SCT,,0.00,WeatherDisplay:10.37,2013-09-13 14:45:00,
2013-09-13 07:48:00,60.7,54.5,29.93,SE,124,3.5,3.5,80,0.00,SCT,,0.00,WeatherDisplay:10.37,2013-09-13 14:48:00,
2013-09-13 07:49:00,60.8,54.6,29.92,ESE,114,2.3,2.3,80,0.00,SCT,,0.00,WeatherDisplay:10.37,2013-09-13 14:49:00,
2013-09-13 07:50:00,60.8,54.6,29.92,SE,129,3.5,3.5,80,0.00,SCT,,0.00,WeatherDisplay:10.37,2013-09-13 14:50:00,
2013-09-13 07:51:00,60.8,54.6,29.92,SE,134,3.5,3.5,80,0.00,SCT,,0.00,WeatherDisplay:10.37,2013-09-13 14:51:00,
2013-09-13 07:53:00,60.8,54.6,29.93,SE,134,0.0,0.0,80,0.00,SCT,,0.00,WeatherDisplay:10.37,2013-09-13 14:53:00,
2013-09-13 07:55:00,60.8,54.6,29.92,SE,134,1.2,1.2,80,0.00,SCT,,0.00,WeatherDisplay:10.37,2013-09-13 14:55:00,
2013-09-13 07:56:00,60.8,54.6,29.93,SE,134,1.2,0.0,80,0.00,SCT,,0.00,WeatherDisplay:10.37,2013-09-13 14:56:00,
2013-09-13 07:57:00,60.9,54.7,29.92,SE,133,1.2,1.2,80,0.00,SCT,,0.00,WeatherDisplay:10.37,2013-09-13 14:57:00,
2013-09-13 07:58:00,60.9,54.7,29.92,SE,133,1.2,1.2,80,0.00,SCT,,0.00,WeatherDisplay:10.37,2013-09-13 14:58:00,
2013-09-13 08:00:00,61.0,54.4,29.93,SE,133,0.0,0.0,79,0.00,SCT,,0.00,WeatherDisplay:10.37,2013-09-13 15:00:00,
2013-09-13 08:01:00,61.0,54.4,29.92,SE,133,0.0,0.0,79,0.00,SCT,,0.00,WeatherDisplay:10.37,2013-09-13 15:01:00,
2013-09-13 08:02:00,61.1,54.5,29.92,SE,133,0.0,0.0,79,0.00,SCT,,0.00,WeatherDisplay:10.37,2013-09-13 15:02:00,
2013-09-13 08:03:00,61.1,54.9,29.92,SE,127,0.0,0.1,80,0.00,SCT,,0.00,WeatherDisplay:10.37,2013-09-13 15:03:00,
2013-09-13 08:04:00,61.1,54.5,29.92,SE,137,1.2,1.2,79,0.00,SCT,,0.00,WeatherDisplay:10.37,2013-09-13 15:04:00,
2013-09-13 08:05:00,61.2,54.6,29.92,SW,225,1.0,1.0,79,0.00,SCT,,0.00,WeatherDisplay:10.37,2013-09-13 15:05:00,
2013-09-13 08:07:00,61.2,54.6,29.92,South,169,1.2,1.2,79,0.00,SCT,,0.00,WeatherDisplay:10.37,2013-09-13 15:07:00,
2013-09-13 08:08:00,61.2,54.6,29.93,South,180,2.3,2.3,79,0.00,SCT,,0.00,WeatherDisplay:10.37,2013-09-13 15:08:00,
2013-09-13 08:09:00,61.2,54.6,29.93,SSE,156,2.3,2.3,79,0.00,SCT,,0.00,WeatherDisplay:10.37,2013-09-13 15:09:00,
2013-09-13 08:11:00,61.3,54.7,29.93,SE,143,2.3,2.3,79,0.00,SCT,,0.00,WeatherDisplay:10.37,2013-09-13 15:11:00,
2013-09-13 08:13:00,61.4,54.8,29.93,SE,144,1.2,0.0,79,0.00,SCT,,0.00,WeatherDisplay:10.37,2013-09-13 15:13:00,
2013-09-13 08:14:00,61.4,54.8,29.93,SE,144,1.2,0.0,79,0.00,SCT,,0.00,WeatherDisplay:10.37,2013-09-13 15:14:00,
2013-09-13 08:16:00,61.4,54.8,29.93,SSE,154,1.2,1.2,79,0.00,SCT,,0.00,WeatherDisplay:10.37,2013-09-13 15:16:00,
2013-09-13 08:17:00,61.4,54.8,29.92,SE,128,2.3,2.3,79,0.00,SCT,,0.00,WeatherDisplay:10.37,2013-09-13 15:17:00,
2013-09-13 08:19:00,61.4,54.8,29.93,SE,128,1.2,1.2,79,0.00,SCT,,0.00,WeatherDisplay:10.37,2013-09-13 15:19:00,
2013-09-13 08:20:00,61.4,54.8,29.92,SE,128,1.2,0.0,79,0.00,SCT,,0.00,WeatherDisplay:10.37,2013-09-13 15:20:00,
2013-09-13 08:23:00,61.5,54.6,29.92,SE,129,4.6,4.6,78,0.00,SCT,,0.00,WeatherDisplay:10.37,2013-09-13 15:23:00,
2013-09-13 08:25:00,61.5,54.6,29.92,SE,129,4.6,4.6,78,0.00,SCT,,0.00,WeatherDisplay:10.37,2013-09-13 15:25:00,
2013-09-13 08:26:00,61.5,54.6,29.92,SE,129,2.3,2.3,78,0.00,SCT,,0.00,WeatherDisplay:10.37,2013-09-13 15:26:00,
2013-09-13 08:29:00,61.6,54.7,29.92,SE,132,0.0,0.0,78,0.00,SCT,,0.00,WeatherDisplay:10.37,2013-09-13 15:29:00,
2013-09-13 08:30:00,61.6,54.7,29.92,SE,132,0.0,0.0,78,0.00,SCT,,0.00,WeatherDisplay:10.37,2013-09-13 15:30:00,
2013-09-13 08:31:00,61.6,54.7,29.92,SE,125,0.0,0.4,78,0.00,SCT,,0.00,WeatherDisplay:10.37,2013-09-13 15:31:00,
2013-09-13 08:32:00,61.6,54.7,29.92,SE,125,0.0,0.4,78,0.00,SCT,,0.00,WeatherDisplay:10.37,2013-09-13 15:32:00,
2013-09-13 08:33:00,61.6,54.7,29.92,South,188,2.3,2.3,78,0.00,SCT,,0.00,WeatherDisplay:10.37,2013-09-13 15:33:00,
2013-09-13 08:35:00,61.6,54.7,29.92,SSE,161,3.5,3.5,78,0.00,SCT,,0.00,WeatherDisplay:10.37,2013-09-13 15:35:00,
2013-09-13 08:36:00,61.6,54.7,29.92,SSE,164,3.5,3.5,78,0.00,SCT,,0.00,WeatherDisplay:10.37,2013-09-13 15:36:00,
2013-09-13 08:37:00,61.6,54.7,29.92,SSE,150,3.5,3.5,78,0.00,SCT,,0.00,WeatherDisplay:10.37,2013-09-13 15:37:00,
2013-09-13 08:40:00,61.7,54.8,29.92,SW,219,3.5,3.5,78,0.00,SCT,,0.00,WeatherDisplay:10.37,2013-09-13 15:40:00,
2013-09-13 08:41:00,61.7,54.8,29.92,SE,145,3.5,3.5,78,0.00,SCT,,0.00,WeatherDisplay:10.37,2013-09-13 15:41:00,
2013-09-13 08:42:00,61.7,54.8,29.92,SE,136,2.3,2.3,78,0.00,SCT,,0.00,WeatherDisplay:10.37,2013-09-13 15:42:00,
2013-09-13 08:45:00,61.8,54.9,29.93,SSE,166,0.0,0.0,78,0.00,SCT,,0.00,WeatherDisplay:10.37,2013-09-13 15:45:00,
2013-09-13 08:46:00,61.8,54.9,29.93,South,170,4.0,4.0,78,0.00,SCT,,0.00,WeatherDisplay:10.37,2013-09-13 15:46:00,
2013-09-13 08:47:00,61.8,54.9,29.93,SE,135,3.5,3.5,78,0.00,SCT,,0.00,WeatherDisplay:10.37,2013-09-13 15:47:00,
2013-09-13 08:50:00,61.8,54.5,29.92,SE,137,0.0,8.0,77,0.00,SCT,,0.00,WeatherDisplay:10.37,2013-09-13 15:50:00,
2013-09-13 08:52:00,61.8,54.5,29.93,SSE,154,4.6,4.6,77,0.00,SCT,,0.00,WeatherDisplay:10.37,2013-09-13 15:52:00,
2013-09-13 08:53:00,61.8,54.9,29.92,WSW,239,4.6,4.6,78,0.00,SCT,,0.00,WeatherDisplay:10.37,2013-09-13 15:53:00,
2013-09-13 08:56:00,61.9,55.0,29.92,ESE,121,3.5,3.5,78,0.00,SCT,,0.00,WeatherDisplay:10.37,2013-09-13 15:56:00,
2013-09-13 08:58:00,61.9,54.6,29.92,South,181,3.5,3.5,77,0.00,SCT,,0.00,WeatherDisplay:10.37,2013-09-13 15:58:00,
2013-09-13 08:59:00,62.0,54.7,29.92,ESE,113,4.6,4.6,77,0.00,SCT,,0.00,WeatherDisplay:10.37,2013-09-13 15:59:00,
2013-09-13 09:01:00,62.0,54.7,29.92,ESE,106,9.2,9.2,77,0.00,SCT,,0.00,WeatherDisplay:10.37,2013-09-13 16:01:00,
2013-09-13 09:03:00,62.0,54.7,29.92,SE,125,3.5,3.5,77,0.00,SCT,,0.00,WeatherDisplay:10.37,2013-09-13 16:03:00,
2013-09-13 09:04:00,62.0,54.7,29.92,SE,125,3.5,3.5,77,0.00,SCT,,0.00,WeatherDisplay:10.37,2013-09-13 16:04:00,
2013-09-13 09:05:00,62.1,54.8,29.92,East,95,1.2,0.0,77,0.00,SCT,,0.00,WeatherDisplay:10.37,2013-09-13 16:05:00,
2013-09-13 09:06:00,62.1,54.4,29.92,SE,130,1.0,1.0,76,0.00,SCT,,0.00,WeatherDisplay:10.37,2013-09-13 16:06:00,
2013-09-13 09:07:00,62.2,54.5,29.92,SSE,152,3.5,3.5,76,0.00,SCT,,0.00,WeatherDisplay:10.37,2013-09-13 16:07:00,
2013-09-13 09:09:00,62.2,54.5,29.92,SSE,168,2.3,2.3,76,0.00,SCT,,0.00,WeatherDisplay:10.37,2013-09-13 16:09:00,
2013-09-13 09:10:00,62.3,54.6,29.93,East,90,3.5,3.5,76,0.00,SCT,,0.00,WeatherDisplay:10.37,2013-09-13 16:10:00,
2013-09-13 09:12:00,62.3,54.6,29.93,ESE,119,2.3,2.3,76,0.00,SCT,,0.00,WeatherDisplay:10.37,2013-09-13 16:12:00,
2013-09-13 09:13:00,62.4,54.7,29.93,ESE,106,2.3,2.3,76,0.00,SCT,,0.00,WeatherDisplay:10.37,2013-09-13 16:13:00,
2013-09-13 09:14:00,62.4,54.7,29.93,ESE,112,2.3,2.3,76,0.00,SCT,,0.00,WeatherDisplay:10.37,2013-09-13 16:14:00,
2013-09-13 09:15:00,62.4,54.7,29.92,South,173,3.5,3.5,76,0.00,SCT,,0.00,WeatherDisplay:10.37,2013-09-13 16:15:00,
2013-09-13 09:19:00,62.5,54.5,29.93,SE,133,4.6,4.6,75,0.00,SCT,,0.00,WeatherDisplay:10.37,2013-09-13 16:19:00,
2013-09-13 09:20:00,62.6,54.6,29.93,SE,130,3.5,3.5,75,0.00,SCT,,0.00,WeatherDisplay:10.37,2013-09-13 16:20:00,
2013-09-13 09:21:00,62.6,54.6,29.93,SE,130,1.2,1.2,75,0.00,SCT,,0.00,WeatherDisplay:10.37,2013-09-13 16:21:00,
2013-09-13 09:24:00,62.7,55.0,29.92,ESE,117,3.5,3.5,76,0.00,SCT,,0.00,WeatherDisplay:10.37,2013-09-13 16:24:00,
2013-09-13 09:25:00,62.8,54.8,29.93,ESE,117,3.5,3.5,75,0.00,SCT,,0.00,WeatherDisplay:10.37,2013-09-13 16:25:00,
2013-09-13 09:26:00,62.9,54.9,29.93,ESE,106,2.0,2.0,75,0.00,SCT,,0.00,WeatherDisplay:10.37,2013-09-13 16:26:00,
2013-09-13 09:29:00,63.0,54.9,29.92,NNW,346,5.8,5.8,75,0.00,SCT,,0.00,WeatherDisplay:10.37,2013-09-13 16:29:00,
2013-09-13 09:30:00,63.0,54.9,29.92,NNW,346,1.2,0.0,75,0.00,SCT,,0.00,WeatherDisplay:10.37,2013-09-13 16:30:00,
2013-09-13 09:31:00,63.0,54.9,29.92,NW,310,1.2,1.2,75,0.00,SCT,,0.00,WeatherDisplay:10.37,2013-09-13 16:31:00,
2013-09-13 09:32:00,63.0,54.9,29.92,SE,130,2.3,2.3,75,0.00,SCT,,0.00,WeatherDisplay:10.37,2013-09-13 16:32:00,
2013-09-13 09:34:00,63.1,54.7,29.92,SSE,156,3.5,3.5,74,0.00,SCT,,0.00,WeatherDisplay:10.37,2013-09-13 16:34:00,
2013-09-13 09:36:00,63.2,54.8,29.93,SE,124,3.5,3.5,74,0.00,SCT,,0.00,WeatherDisplay:10.37,2013-09-13 16:36:00,
2013-09-13 09:38:00,63.3,54.9,29.92,ESE,121,5.8,5.8,74,0.00,SCT,,0.00,WeatherDisplay:10.37,2013-09-13 16:38:00,
2013-09-13 09:40:00,63.3,54.9,29.92,ESE,123,2.0,7.0,74,0.00,SCT,,0.00,WeatherDisplay:10.37,2013-09-13 16:40:00,
2013-09-13 09:41:00,63.4,55.0,29.92,SE,132,6.9,6.9,74,0.00,SCT,,0.00,WeatherDisplay:10.37,2013-09-13 16:41:00,
2013-09-13 09:42:00,63.5,55.1,29.92,ESE,119,6.0,6.0,74,0.00,SCT,,0.00,WeatherDisplay:10.37,2013-09-13 16:42:00,
2013-09-13 09:43:00,63.6,55.2,29.92,East,80,5.8,5.8,74,0.00,SCT,,0.00,WeatherDisplay:10.37,2013-09-13 16:43:00,
2013-09-13 09:45:00,63.7,55.3,29.92,ESE,118,1.0,9.0,74,0.00,SCT,,0.00,WeatherDisplay:10.37,2013-09-13 16:45:00,
2013-09-13 09:46:00,64.2,55.4,29.92,SE,141,3.5,3.5,73,0.00,SCT,,0.00,WeatherDisplay:10.37,2013-09-13 16:46:00,
2013-09-13 09:47:00,64.4,55.2,29.92,SE,142,3.5,3.5,72,0.00,SCT,,0.00,WeatherDisplay:10.37,2013-09-13 16:47:00,
2013-09-13 09:48:00,64.5,55.3,29.92,SE,136,0.0,0.0,72,0.00,SCT,,0.00,WeatherDisplay:10.37,2013-09-13 16:48:00,
2013-09-13 09:49:00,64.8,55.2,29.92,SE,136,0.0,0.0,71,0.00,SCT,,0.00,WeatherDisplay:10.37,2013-09-13 16:49:00,
2013-09-13 09:51:00,64.9,55.3,29.92,SE,125,5.0,5.0,71,0.00,SCT,,0.00,WeatherDisplay:10.37,2013-09-13 16:51:00,
2013-09-13 09:52:00,65.2,55.6,29.92,ENE,74,4.6,4.6,71,0.00,SCT,,0.00,WeatherDisplay:10.37,2013-09-13 16:52:00,
2013-09-13 09:53:00,65.3,55.7,29.92,SSE,150,6.9,6.9,71,0.00,SCT,,0.00,WeatherDisplay:10.37,2013-09-13 16:53:00,
2013-09-13 09:54:00,65.4,55.0,29.92,SSE,150,6.9,6.9,69,0.00,SCT,,0.00,WeatherDisplay:10.37,2013-09-13 16:54:00,
2013-09-13 09:56:00,65.8,55.3,29.92,ESE,118,2.0,2.0,69,0.00,SCT,,0.00,WeatherDisplay:10.37,2013-09-13 16:56:00,
2013-09-13 09:57:00,65.8,55.3,29.92,SE,126,0.0,0.3,69,0.00,SCT,,0.00,WeatherDisplay:10.37,2013-09-13 16:57:00,
2013-09-13 09:58:00,65.9,55.4,29.92,SE,126,2.3,0.0,69,0.00,SCT,,0.00,WeatherDisplay:10.37,2013-09-13 16:58:00,
2013-09-13 09:59:00,66.2,55.7,29.93,South,189,3.0,3.0,69,0.00,SCT,,0.00,WeatherDisplay:10.37,2013-09-13 16:59:00,
2013-09-13 10:00:00,66.3,54.6,29.92,SSW,194,3.5,3.5,66,0.00,SCT,,0.00,WeatherDisplay:10.37,2013-09-13 17:00:00,
2013-09-13 10:01:00,66.3,55.0,29.92,ESE,115,3.5,3.5,67,0.00,SCT,,0.00,WeatherDisplay:10.37,2013-09-13 17:01:00,
2013-09-13 10:02:00,66.4,55.1,29.92,SSE,148,3.5,3.5,67,0.00,SCT,,0.00,WeatherDisplay:10.37,2013-09-13 17:02:00,
2013-09-13 10:04:00,66.4,55.1,29.92,SW,231,3.5,3.5,67,0.00,SCT,,0.00,WeatherDisplay:10.37,2013-09-13 17:04:00,
2013-09-13 10:05:00,66.5,55.6,29.92,SW,230,3.5,0.0,68,0.00,SCT,,0.00,WeatherDisplay:10.37,2013-09-13 17:05:00,
2013-09-13 10:06:00,66.5,54.8,29.92,SSW,209,0.0,0.0,66,0.00,SCT,,0.00,WeatherDisplay:10.37,2013-09-13 17:06:00,
2013-09-13 10:07:00,66.5,55.2,29.92,SSE,153,4.0,0.0,67,0.00,SCT,,0.00,WeatherDisplay:10.37,2013-09-13 17:07:00,
2013-09-13 10:08:00,66.5,55.2,29.92,East,79,1.2,1.2,67,0.00,SCT,,0.00,WeatherDisplay:10.37,2013-09-13 17:08:00,
2013-09-13 10:09:00,66.7,55.4,29.92,SSE,160,3.5,3.5,67,0.00,SCT,,0.00,WeatherDisplay:10.37,2013-09-13 17:09:00,
2013-09-13 10:12:00,67.0,55.7,29.92,ESE,106,1.2,1.2,67,0.00,SCT,,0.00,WeatherDisplay:10.37,2013-09-13 17:12:00,
2013-09-13 10:13:00,67.1,55.4,29.92,ESE,105,1.2,0.0,66,0.00,SCT,,0.00,WeatherDisplay:10.37,2013-09-13 17:13:00,
2013-09-13 10:15:00,67.4,55.2,29.92,ENE,61,2.3,0.0,65,0.00,SCT,,0.00,WeatherDisplay:10.37,2013-09-13 17:15:00,
2013-09-13 10:17:00,67.7,55.1,29.92,SE,132,2.3,2.3,64,0.00,SCT,,0.00,WeatherDisplay:10.37,2013-09-13 17:17:00,
2013-09-13 10:18:00,67.7,55.5,29.92,SE,132,2.3,2.3,65,0.00,SCT,,0.00,WeatherDisplay:10.37,2013-09-13 17:18:00,
2013-09-13 10:19:00,67.9,55.3,29.92,East,79,2.0,2.0,64,0.00,SCT,,0.00,WeatherDisplay:10.37,2013-09-13 17:19:00,
2013-09-13 10:20:00,68.0,55.4,29.92,ENE,77,1.2,1.2,64,0.00,SCT,,0.00,WeatherDisplay:10.37,2013-09-13 17:20:00,
2013-09-13 10:24:00,68.4,55.3,29.92,South,169,4.0,4.0,63,0.00,SCT,,0.00,WeatherDisplay:10.37,2013-09-13 17:24:00,
2013-09-13 10:25:00,68.4,54.8,29.92,SSE,150,1.0,5.0,62,0.00,SCT,,0.00,WeatherDisplay:10.37,2013-09-13 17:25:00,
2013-09-13 10:27:00,68.5,55.0,29.92,ESE,114,3.5,3.5,62,0.00,SCT,,0.00,WeatherDisplay:10.37,2013-09-13 17:27:00,
2013-09-13 10:28:00,68.6,54.6,29.92,SE,143,2.3,2.3,61,0.00,SCT,,0.00,WeatherDisplay:10.37,2013-09-13 17:28:00,
2013-09-13 10:29:00,68.6,55.1,29.92,SE,143,2.3,2.3,62,0.00,SCT,,0.00,WeatherDisplay:10.37,2013-09-13 17:29:00,
2013-09-13 10:30:00,68.6,55.1,29.92,SE,138,0.0,3.0,62,0.00,SCT,,0.00,WeatherDisplay:10.37,2013-09-13 17:30:00,
2013-09-13 10:32:00,68.7,54.7,29.92,SE,146,4.6,4.6,61,0.00,SCT,,0.00,WeatherDisplay:10.37,2013-09-13 17:32:00,
2013-09-13 10:34:00,68.9,54.9,29.91,SSE,166,2.3,2.3,61,0.00,SCT,,0.00,WeatherDisplay:10.37,2013-09-13 17:34:00,
2013-09-13 10:35:00,69.0,55.4,29.91,SSW,212,2.3,2.3,62,0.00,SCT,,0.00,WeatherDisplay:10.37,2013-09-13 17:35:00,
2013-09-13 10:36:00,69.0,55.4,29.91,South,191,2.3,2.3,62,0.00,SCT,,0.00,WeatherDisplay:10.37,2013-09-13 17:36:00,
2013-09-13 10:37:00,69.2,55.6,29.92,SSW,203,1.2,0.0,62,0.00,SCT,,0.00,WeatherDisplay:10.37,2013-09-13 17:37:00,
2013-09-13 10:40:00,69.4,55.4,29.92,SW,229,1.2,1.2,61,0.00,SCT,,0.00,WeatherDisplay:10.37,2013-09-13 17:40:00,
2013-09-13 10:41:00,69.4,54.9,29.92,SW,220,3.5,3.5,60,0.00,SCT,,0.00,WeatherDisplay:10.37,2013-09-13 17:41:00,
2013-09-13 10:43:00,69.4,55.4,29.92,East,82,3.5,0.0,61,0.00,SCT,,0.00,WeatherDisplay:10.37,2013-09-13 17:43:00,
2013-09-13 10:45:00,69.7,55.6,29.91,South,171,6.9,6.9,61,0.00,SCT,,0.00,WeatherDisplay:10.37,2013-09-13 17:45:00,
2013-09-13 10:46:00,69.7,55.2,29.91,SW,235,3.5,3.5,60,0.00,SCT,,0.00,WeatherDisplay:10.37,2013-09-13 17:46:00,
2013-09-13 10:49:00,69.9,55.4,29.91,SE,132,3.5,3.5,60,0.00,SCT,,0.00,WeatherDisplay:10.37,2013-09-13 17:49:00,
2013-09-13 10:50:00,69.9,55.4,29.91,SSE,163,1.0,4.0,60,0.00,SCT,,0.00,WeatherDisplay:10.37,2013-09-13 17:50:00,
2013-09-13 10:51:00,70.0,55.5,29.91,SSE,147,4.6,4.6,60,0.00,SCT,,0.00,WeatherDisplay:10.37,2013-09-13 17:51:00,
2013-09-13 10:53:00,70.1,55.1,29.91,ESE,114,4.6,4.6,59,0.00,SCT,,0.00,WeatherDisplay:10.37,2013-09-13 17:53:00,
2013-09-13 10:55:00,70.3,55.3,29.91,SSW,200,3.5,3.5,59,0.00,SCT,,0.00,WeatherDisplay:10.37,2013-09-13 17:55:00,
2013-09-13 10:56:00,70.3,55.3,29.91,WNW,288,2.0,2.0,59,0.00,SCT,,0.00,WeatherDisplay:10.37,2013-09-13 17:56:00,
2013-09-13 10:57:00,70.3,55.3,29.91,ESE,120,5.8,5.8,59,0.00,SCT,,0.00,WeatherDisplay:10.37,2013-09-13 17:57:00,
2013-09-13 10:58:00,70.3,55.3,29.91,East,89,3.5,3.5,59,0.00,SCT,,0.00,WeatherDisplay:10.37,2013-09-13 17:58:00,
2013-09-13 10:59:00,70.4,55.8,29.91,NE,46,3.5,0.0,60,0.00,SCT,,0.00,WeatherDisplay:10.37,2013-09-13 17:59:00,
2013-09-13 11:01:00,70.6,55.6,29.91,WSW,241,3.5,3.5,59,0.00,SCT,,0.00,WeatherDisplay:10.37,2013-09-13 18:01:00,
2013-09-13 11:02:00,70.7,55.2,29.91,West,274,1.2,1.2,58,0.00,SCT,,0.00,WeatherDisplay:10.37,2013-09-13 18:02:00,
2013-09-13 11:03:00,70.8,55.8,29.91,ENE,71,2.3,2.3,59,0.00,SCT,,0.00,WeatherDisplay:10.37,2013-09-13 18:03:00,
2013-09-13 11:04:00,70.8,55.3,29.90,ENE,64,2.3,2.3,58,0.00,SCT,,0.00,WeatherDisplay:10.37,2013-09-13 18:04:00,
2013-09-13 11:06:00,71.1,56.0,29.91,ENE,75,3.5,3.5,59,0.00,SCT,,0.00,WeatherDisplay:10.37,2013-09-13 18:06:00,
2013-09-13 11:08:00,71.2,55.7,29.91,SW,233,3.5,3.5,58,0.00,SCT,,0.00,WeatherDisplay:10.37,2013-09-13 18:08:00,
2013-09-13 11:09:00,71.4,55.9,29.91,ENE,59,2.3,2.3,58,0.00,SCT,,0.00,WeatherDisplay:10.37,2013-09-13 18:09:00,
2013-09-13 11:10:00,71.4,55.9,29.91,ENE,58,2.3,0.0,58,0.00,SCT,,0.00,WeatherDisplay:10.37,2013-09-13 18:10:00,
2013-09-13 11:13:00,71.7,55.7,29.91,ESE,107,1.0,1.0,57,0.00,SCT,,0.00,WeatherDisplay:10.37,2013-09-13 18:13:00,
2013-09-13 11:14:00,71.7,55.7,29.90,ESE,105,2.3,2.3,57,0.00,SCT,,0.00,WeatherDisplay:10.37,2013-09-13 18:14:00,
2013-09-13 11:15:00,71.7,55.7,29.90,SE,143,0.0,6.0,57,0.00,SCT,,0.00,WeatherDisplay:10.37,2013-09-13 18:15:00,
2013-09-13 11:16:00,71.8,55.7,29.91,SE,136,3.5,3.5,57,0.00,SCT,,0.00,WeatherDisplay:10.37,2013-09-13 18:16:00,
2013-09-13 11:18:00,71.9,55.3,29.91,ESE,123,2.3,0.0,56,0.00,SCT,,0.00,WeatherDisplay:10.37,2013-09-13 18:18:00,
2013-09-13 11:19:00,71.8,55.7,29.90,SSW,204,2.3,2.3,57,0.00,SCT,,0.00,WeatherDisplay:10.37,2013-09-13 18:19:00,
2013-09-13 11:20:00,71.8,55.7,29.90,East,101,3.5,3.5,57,0.00,SCT,,0.00,WeatherDisplay:10.37,2013-09-13 18:20:00,
2013-09-13 11:21:00,72.0,55.9,29.90,East,98,3.5,3.5,57,0.00,SCT,,0.00,WeatherDisplay:10.37,2013-09-13 18:21:00,
2013-09-13 11:23:00,72.2,55.6,29.90,SW,230,1.2,1.2,56,0.00,SCT,,0.00,WeatherDisplay:10.37,2013-09-13 18:23:00,
2013-09-13 11:26:00,72.3,55.7,29.90,ESE,115,2.3,0.0,56,0.00,SCT,,0.00,WeatherDisplay:10.37,2013-09-13 18:26:00,
2013-09-13 11:28:00,72.4,55.8,29.90,ESE,117,0.0,0.0,56,0.00,SCT,,0.00,WeatherDisplay:10.37,2013-09-13 18:28:00,
2013-09-13 11:31:00,72.6,56.0,29.90,SSE,154,3.5,3.5,56,0.00,SCT,,0.00,WeatherDisplay:10.37,2013-09-13 18:31:00,
2013-09-13 11:33:00,72.9,56.3,29.90,SSW,203,1.2,1.2,56,0.00,SCT,,0.00,WeatherDisplay:10.37,2013-09-13 18:33:00,
2013-09-13 11:35:00,72.9,55.3,29.90,South,186,2.3,2.3,54,0.00,SCT,,0.00,WeatherDisplay:10.37,2013-09-13 18:35:00,
2013-09-13 11:36:00,72.9,55.8,29.90,ESE,122,2.3,2.3,55,0.00,SCT,,0.00,WeatherDisplay:10.37,2013-09-13 18:36:00,
2013-09-13 11:41:00,73.4,55.7,29.90,SSW,206,3.5,3.5,54,0.00,SCT,,0.00,WeatherDisplay:10.37,2013-09-13 18:41:00,
2013-09-13 11:42:00,73.6,55.9,29.90,SSW,199,3.5,3.5,54,0.00,SCT,,0.00,WeatherDisplay:10.37,2013-09-13 18:42:00,
2013-09-13 11:43:00,73.7,56.0,29.90,SE,126,4.6,4.6,54,0.00,SCT,,0.00,WeatherDisplay:10.37,2013-09-13 18:43:00,
2013-09-13 11:44:00,73.7,55.5,29.89,SE,133,4.6,4.6,53,0.00,SCT,,0.00,WeatherDisplay:10.37,2013-09-13 18:44:00,
2013-09-13 11:46:00,73.8,55.6,29.90,WSW,239,1.2,0.0,53,0.00,SCT,,0.00,WeatherDisplay:10.37,2013-09-13 18:46:00,
2013-09-13 11:47:00,73.8,55.6,29.90,WSW,241,0.0,0.0,53,0.00,SCT,,0.00,WeatherDisplay:10.37,2013-09-13 18:47:00,
2013-09-13 11:48:00,73.8,55.6,29.89,WSW,241,0.0,0.0,53,0.00,SCT,,0.00,WeatherDisplay:10.37,2013-09-13 18:48:00,
2013-09-13 11:50:00,73.7,56.0,29.89,WSW,241,0.0,0.0,54,0.00,SCT,,0.00,WeatherDisplay:10.37,2013-09-13 18:50:00,
2013-09-13 11:52:00,73.9,55.7,29.89,SW,215,5.8,5.8,53,0.00,SCT,,0.00,WeatherDisplay:10.37,2013-09-13 18:52:00,
2013-09-13 11:53:00,73.8,55.6,29.89,SW,229,3.5,3.5,53,0.00,SCT,,0.00,WeatherDisplay:10.37,2013-09-13 18:53:00,
2013-09-13 11:54:00,73.9,55.2,29.89,SSW,209,3.5,3.5,52,0.00,SCT,,0.00,WeatherDisplay:10.37,2013-09-13 18:54:00,
2013-09-13 11:55:00,73.9,55.7,29.89,SW,225,0.0,6.0,53,0.00,SCT,,0.00,WeatherDisplay:10.37,2013-09-13 18:55:00,
2013-09-13 11:57:00,73.9,55.2,29.89,SE,136,1.0,1.0,52,0.00,SCT,,0.00,WeatherDisplay:10.37,2013-09-13 18:57:00,
2013-09-13 11:58:00,73.9,55.2,29.89,SSE,147,1.0,1.0,52,0.00,SCT,,0.00,WeatherDisplay:10.37,2013-09-13 18:58:00,
2013-09-13 12:00:00,73.7,55.5,29.89,South,183,3.5,3.5,53,0.00,SCT,,0.00,WeatherDisplay:10.37,2013-09-13 19:00:00,
2013-09-13 12:01:00,73.7,56.0,29.89,SSW,203,3.5,3.5,54,0.00,SCT,,0.00,WeatherDisplay:10.37,2013-09-13 19:01:00,
2013-09-13 12:03:00,74.0,55.8,29.89,WSW,241,4.6,4.6,53,0.00,SCT,,0.00,WeatherDisplay:10.37,2013-09-13 19:03:00,
2013-09-13 12:04:00,74.2,56.0,29.89,WSW,247,1.2,1.2,53,0.00,SCT,,0.00,WeatherDisplay:10.37,2013-09-13 19:04:00,
2013-09-13 12:05:00,74.3,55.5,29.89,SW,216,1.2,1.2,52,0.00,SCT,,0.00,WeatherDisplay:10.37,2013-09-13 19:05:00,
2013-09-13 12:06:00,74.3,55.5,29.89,SW,215,1.2,1.2,52,0.00,SCT,,0.00,WeatherDisplay:10.37,2013-09-13 19:06:00,
2013-09-13 12:09:00,74.5,55.7,29.89,ESE,118,3.5,3.5,52,0.00,SCT,,0.00,WeatherDisplay:10.37,2013-09-13 19:09:00,
2013-09-13 12:11:00,74.7,55.4,29.89,SE,140,7.0,7.0,51,0.00,SCT,,0.00,WeatherDisplay:10.37,2013-09-13 19:11:00,
2013-09-13 12:12:00,74.9,56.1,29.89,East,101,6.9,6.9,52,0.00,SCT,,0.00,WeatherDisplay:10.37,2013-09-13 19:12:00,
2013-09-13 12:14:00,75.1,55.7,29.89,SE,127,4.6,4.6,51,0.00,SCT,,0.00,WeatherDisplay:10.37,2013-09-13 19:14:00,
2013-09-13 12:16:00,75.3,56.5,29.89,SSW,198,2.3,2.3,52,0.00,SCT,,0.00,WeatherDisplay:10.37,2013-09-13 19:16:00,
2013-09-13 12:17:00,75.3,56.5,29.88,SSW,204,2.3,2.3,52,0.00,SCT,,0.00,WeatherDisplay:10.37,2013-09-13 19:17:00,
2013-09-13 12:18:00,75.5,56.1,29.88,ESE,120,5.0,5.0,51,0.00,SCT,,0.00,WeatherDisplay:10.37,2013-09-13 19:18:00,
2013-09-13 12:19:00,75.6,56.2,29.89,ESE,102,4.6,0.0,51,0.00,SCT,,0.00,WeatherDisplay:10.37,2013-09-13 19:19:00,
2013-09-13 12:20:00,75.7,56.3,29.89,ESE,102,4.6,0.0,51,0.00,SCT,,0.00,WeatherDisplay:10.37,2013-09-13 19:20:00,
2013-09-13 12:22:00,75.9,55.9,29.88,SE,145,5.8,5.8,50,0.00,SCT,,0.00,WeatherDisplay:10.37,2013-09-13 19:22:00,
2013-09-13 12:23:00,76.1,56.1,29.88,ESE,119,3.5,3.5,50,0.00,SCT,,0.00,WeatherDisplay:10.37,2013-09-13 19:23:00,
2013-09-13 12:24:00,76.2,56.2,29.88,ESE,119,4.6,4.6,50,0.00,SCT,,0.00,WeatherDisplay:10.37,2013-09-13 19:24:00,
2013-09-13 12:25:00,76.2,56.2,29.88,SE,125,2.0,6.0,50,0.00,SCT,,0.00,WeatherDisplay:10.37,2013-09-13 19:25:00,
2013-09-13 12:28:00,76.5,55.9,29.88,South,185,3.5,0.0,49,0.00,SCT,,0.00,WeatherDisplay:10.37,2013-09-13 19:28:00,
2013-09-13 12:29:00,76.7,56.1,29.88,East,90,6.9,6.9,49,0.00,SCT,,0.00,WeatherDisplay:10.37,2013-09-13 19:29:00,
2013-09-13 12:30:00,76.7,56.1,29.88,East,82,6.9,6.9,49,0.00,SCT,,0.00,WeatherDisplay:10.37,2013-09-13 19:30:00,
2013-09-13 12:33:00,77.0,56.4,29.88,ESE,122,6.9,6.9,49,0.00,SCT,,0.00,WeatherDisplay:10.37,2013-09-13 19:33:00,
2013-09-13 12:34:00,77.0,56.4,29.88,SE,130,6.9,6.9,49,0.00,SCT,,0.00,WeatherDisplay:10.37,2013-09-13 19:34:00,
2013-09-13 12:35:00,77.2,56.0,29.88,SE,128,0.0,0.0,48,0.00,SCT,,0.00,WeatherDisplay:10.37,2013-09-13 19:35:00,
2013-09-13 12:36:00,77.2,56.0,29.88,North,3,3.5,3.5,48,0.00,SCT,,0.00,WeatherDisplay:10.37,2013-09-13 19:36:00,
2013-09-13 12:39:00,77.4,56.2,29.88,ESE,121,4.6,4.6,48,0.00,SCT,,0.00,WeatherDisplay:10.37,2013-09-13 19:39:00,
2013-09-13 12:41:00,77.6,56.4,29.87,East,90,2.3,2.3,48,0.00,SCT,,0.00,WeatherDisplay:10.37,2013-09-13 19:41:00,
2013-09-13 12:42:00,77.8,56.5,29.87,SE,141,3.5,3.5,48,0.00,SCT,,0.00,WeatherDisplay:10.37,2013-09-13 19:42:00,
2013-09-13 12:43:00,77.8,56.5,29.87,ESE,110,3.5,3.5,48,0.00,SCT,,0.00,WeatherDisplay:10.37,2013-09-13 19:43:00,
2013-09-13 12:44:00,77.9,56.0,29.87,SSE,152,3.5,3.5,47,0.00,SCT,,0.00,WeatherDisplay:10.37,2013-09-13 19:44:00,
2013-09-13 12:46:00,78.0,56.1,29.87,SE,146,3.5,3.5,47,0.00,SCT,,0.00,WeatherDisplay:10.37,2013-09-13 19:46:00,
2013-09-13 12:47:00,78.1,56.2,29.87,SE,143,4.6,4.6,47,0.00,SCT,,0.00,WeatherDisplay:10.37,2013-09-13 19:47:00,
2013-09-13 12:48:00,78.2,56.3,29.87,SE,142,4.6,4.6,47,0.00,SCT,,0.00,WeatherDisplay:10.37,2013-09-13 19:48:00,
2013-09-13 12:49:00,78.2,56.3,29.87,ESE,109,4.0,4.0,47,0.00,SCT,,0.00,WeatherDisplay:10.37,2013-09-13 19:49:00,
2013-09-13 12:51:00,78.3,56.4,29.87,SE,125,4.6,4.6,47,0.00,SCT,,0.00,WeatherDisplay:10.37,2013-09-13 19:51:00,
2013-09-13 12:53:00,78.5,56.6,29.87,SE,129,5.8,5.8,47,0.00,SCT,,0.00,WeatherDisplay:10.37,2013-09-13 19:53:00,
2013-09-13 12:54:00,78.5,56.6,29.87,SE,145,5.8,5.8,47,0.00,SCT,,0.00,WeatherDisplay:10.37,2013-09-13 19:54:00,
2013-09-13 12:55:00,78.5,56.6,29.87,SE,130,1.0,7.0,47,0.00,SCT,,0.00,WeatherDisplay:10.37,2013-09-13 19:55:00,
2013-09-13 12:56:00,78.7,56.8,29.87,SE,146,6.9,6.9,47,0.00,SCT,,0.00,WeatherDisplay:10.37,2013-09-13 19:56:00,
2013-09-13 12:59:00,78.9,57.0,29.87,SSE,154,4.6,4.6,47,0.00,SCT,,0.00,WeatherDisplay:10.37,2013-09-13 19:59:00,
2013-09-13 13:00:00,78.9,57.0,29.87,East,99,4.6,0.0,47,0.00,SCT,,0.00,WeatherDisplay:10.37,2013-09-13 20:00:00,
2013-09-13 13:01:00,79.0,57.0,29.87,SSE,160,3.5,3.5,47,0.00,SCT,,0.00,WeatherDisplay:10.37,2013-09-13 20:01:00,
2013-09-13 13:02:00,79.1,56.5,29.87,SSE,160,2.3,2.3,46,0.00,SCT,,0.00,WeatherDisplay:10.37,2013-09-13 20:02:00,
2013-09-13 13:05:00,79.3,56.7,29.86,South,185,3.5,3.5,46,0.00,SCT,,0.00,WeatherDisplay:10.37,2013-09-13 20:05:00,
2013-09-13 13:06:00,79.3,56.7,29.86,SSW,198,3.5,3.5,46,0.00,SCT,,0.00,WeatherDisplay:10.37,2013-09-13 20:06:00,
2013-09-13 13:07:00,79.4,56.8,29.86,SSW,198,3.5,0.0,46,0.00,SCT,,0.00,WeatherDisplay:10.37,2013-09-13 20:07:00,
2013-09-13 13:09:00,79.3,56.7,29.86,ESE,122,1.0,0.0,46,0.00,SCT,,0.00,WeatherDisplay:10.37,2013-09-13 20:09:00,
2013-09-13 13:12:00,79.4,56.8,29.86,ESE,107,1.2,1.2,46,0.00,SCT,,0.00,WeatherDisplay:10.37,2013-09-13 20:12:00,
2013-09-13 13:14:00,79.4,56.8,29.86,SE,127,0.0,0.0,46,0.00,SCT,,0.00,WeatherDisplay:10.37,2013-09-13 20:14:00,
2013-09-13 13:17:00,79.6,56.4,29.86,WSW,250,6.9,6.9,45,0.00,SCT,,0.00,WeatherDisplay:10.37,2013-09-13 20:17:00,
2013-09-13 13:18:00,79.7,56.5,29.86,ESE,120,1.2,1.2,45,0.00,SCT,,0.00,WeatherDisplay:10.37,2013-09-13 20:18:00,
2013-09-13 13:19:00,79.7,56.5,29.86,SE,126,4.0,4.0,45,0.00,SCT,,0.00,WeatherDisplay:10.37,2013-09-13 20:19:00,
2013-09-13 13:22:00,79.9,56.7,29.86,SSE,157,5.8,5.8,45,0.00,SCT,,0.00,WeatherDisplay:10.37,2013-09-13 20:22:00,
2013-09-13 13:24:00,80.0,56.7,29.86,SE,132,4.6,4.6,45,0.00,SCT,,0.00,WeatherDisplay:10.37,2013-09-13 20:24:00,
2013-09-13 13:25:00,80.1,56.8,29.86,SSE,159,4.0,4.0,45,0.00,SCT,,0.00,WeatherDisplay:10.37,2013-09-13 20:25:00,
2013-09-13 13:28:00,80.2,56.3,29.85,SE,130,4.0,4.0,44,0.00,SCT,,0.00,WeatherDisplay:10.37,2013-09-13 20:28:00,
2013-09-13 13:30:00,80.3,56.4,29.85,SSE,150,3.5,3.5,44,0.00,SCT,,0.00,WeatherDisplay:10.37,2013-09-13 20:30:00,
2013-09-13 13:32:00,80.4,57.1,29.86,SSW,206,3.5,3.5,45,0.00,SCT,,0.00,WeatherDisplay:10.37,2013-09-13 20:32:00,
2013-09-13 13:33:00,80.4,56.5,29.85,SSE,159,7.0,7.0,44,0.00,SCT,,0.00,WeatherDisplay:10.37,2013-09-13 20:33:00,
2013-09-13 13:34:00,80.5,56.6,29.85,SE,127,6.9,6.9,44,0.00,SCT,,0.00,WeatherDisplay:10.37,2013-09-13 20:34:00,
2013-09-13 13:35:00,80.5,56.6,29.85,SE,127,3.5,3.5,44,0.00,SCT,,0.00,WeatherDisplay:10.37,2013-09-13 20:35:00,
2013-09-13 13:37:00,80.6,56.7,29.85,SSE,163,2.0,2.0,44,0.00,SCT,,0.00,WeatherDisplay:10.37,2013-09-13 20:37:00,
2013-09-13 13:38:00,80.7,56.8,29.85,ESE,110,8.0,8.0,44,0.00,SCT,,0.00,WeatherDisplay:10.37,2013-09-13 20:38:00,
2013-09-13 13:39:00,80.7,56.8,29.85,SE,125,8.1,8.1,44,0.00,SCT,,0.00,WeatherDisplay:10.37,2013-09-13 20:39:00,
2013-09-13 13:40:00,80.8,56.2,29.85,SE,127,8.1,8.1,43,0.00,SCT,,0.00,WeatherDisplay:10.37,2013-09-13 20:40:00,
2013-09-13 13:41:00,80.8,56.2,29.85,ESE,121,8.1,8.1,43,0.00,SCT,,0.00,WeatherDisplay:10.37,2013-09-13 20:41:00,
2013-09-13 13:43:00,80.9,56.3,29.85,SE,138,5.8,5.8,43,0.00,SCT,,0.00,WeatherDisplay:10.37,2013-09-13 20:43:00,
2013-09-13 13:45:00,81.1,56.5,29.85,SSE,157,5.8,5.8,43,0.00,SCT,,0.00,WeatherDisplay:10.37,2013-09-13 20:45:00,
2013-09-13 13:46:00,81.1,56.5,29.85,East,92,5.8,5.8,43,0.00,SCT,,0.00,WeatherDisplay:10.37,2013-09-13 20:46:00,
2013-09-13 13:47:00,81.1,56.5,29.85,SE,133,3.5,3.5,43,0.00,SCT,,0.00,WeatherDisplay:10.37,2013-09-13 20:47:00,
2013-09-13 13:48:00,81.2,56.6,29.85,WNW,297,5.8,5.8,43,0.00,SCT,,0.00,WeatherDisplay:10.37,2013-09-13 20:48:00,
2013-09-13 13:50:00,81.2,56.6,29.85,SSE,151,2.3,2.3,43,0.00,SCT,,0.00,WeatherDisplay:10.37,2013-09-13 20:50:00,
2013-09-13 13:52:00,81.3,56.7,29.85,SSW,202,3.5,3.5,43,0.00,SCT,,0.00,WeatherDisplay:10.37,2013-09-13 20:52:00,
2013-09-13 13:53:00,81.2,56.6,29.85,SSE,147,3.5,3.5,43,0.00,SCT,,0.00,WeatherDisplay:10.37,2013-09-13 20:53:00,
2013-09-13 13:54:00,81.3,56.7,29.84,South,180,2.3,2.3,43,0.00,SCT,,0.00,WeatherDisplay:10.37,2013-09-13 20:54:00,
2013-09-13 13:55:00,81.3,56.7,29.84,SE,133,7.0,7.0,43,0.00,SCT,,0.00,WeatherDisplay:10.37,2013-09-13 20:55:00,
2013-09-13 13:56:00,81.3,56.7,29.84,ESE,122,7.0,7.0,43,0.00,SCT,,0.00,WeatherDisplay:10.37,2013-09-13 20:56:00,
2013-09-13 13:57:00,81.4,56.8,29.85,ESE,110,6.9,6.9,43,0.00,SCT,,0.00,WeatherDisplay:10.37,2013-09-13 20:57:00,
2013-09-13 13:58:00,81.4,56.1,29.84,ESE,104,3.5,3.5,42,0.00,SCT,,0.00,WeatherDisplay:10.37,2013-09-13 20:58:00,
2013-09-13 13:59:00,81.4,56.8,29.84,SE,141,4.6,4.6,43,0.00,SCT,,0.00,WeatherDisplay:10.37,2013-09-13 20:59:00,
2013-09-13 14:00:00,81.4,56.7,29.84,SE,133,1.0,7.0,43,0.00,SCT,,0.00,WeatherDisplay:10.37,2013-09-13 21:00:00,
2013-09-13 14:01:00,81.4,56.8,29.84,SSE,154,3.5,3.5,43,0.00,SCT,,0.00,WeatherDisplay:10.37,2013-09-13 21:01:00,
2013-09-13 14:02:00,81.4,56.8,29.84,ESE,115,2.3,2.3,43,0.00,SCT,,0.00,WeatherDisplay:10.37,2013-09-13 21:02:00,
2013-09-13 14:04:00,81.4,56.8,29.84,WSW,245,1.2,1.2,43,0.00,SCT,,0.00,WeatherDisplay:10.37,2013-09-13 21:04:00,
2013-09-13 14:05:00,81.4,56.8,29.84,West,271,3.5,3.5,43,0.00,SCT,,0.00,WeatherDisplay:10.37,2013-09-13 21:05:00,
2013-09-13 14:06:00,81.4,56.8,29.84,ESE,119,3.5,3.5,43,0.00,SCT,,0.00,WeatherDisplay:10.37,2013-09-13 21:06:00,
2013-09-13 14:08:00,81.4,56.8,29.84,SE,130,8.0,8.0,43,0.00,SCT,,0.00,WeatherDisplay:10.37,2013-09-13 21:08:00,
2013-09-13 14:09:00,81.5,56.8,29.84,ENE,75,8.1,8.1,43,0.00,SCT,,0.00,WeatherDisplay:10.37,2013-09-13 21:09:00,
2013-09-13 14:11:00,81.6,56.9,29.84,SE,136,4.6,4.6,43,0.00,SCT,,0.00,WeatherDisplay:10.37,2013-09-13 21:11:00,
2013-09-13 14:12:00,81.5,56.8,29.84,South,171,5.0,5.0,43,0.00,SCT,,0.00,WeatherDisplay:10.37,2013-09-13 21:12:00,
2013-09-13 14:13:00,81.6,56.3,29.84,ESE,115,5.8,5.8,42,0.00,SCT,,0.00,WeatherDisplay:10.37,2013-09-13 21:13:00,
2013-09-13 14:14:00,81.5,56.2,29.84,SE,130,3.5,3.5,42,0.00,SCT,,0.00,WeatherDisplay:10.37,2013-09-13 21:14:00,
2013-09-13 14:16:00,81.5,56.2,29.84,SSW,207,4.6,4.6,42,0.00,SCT,,0.00,WeatherDisplay:10.37,2013-09-13 21:16:00,
2013-09-13 14:17:00,81.5,56.2,29.84,SSW,202,4.6,4.6,42,0.00,SCT,,0.00,WeatherDisplay:10.37,2013-09-13 21:17:00,
2013-09-13 14:18:00,81.4,56.1,29.83,SSE,166,5.8,5.8,42,0.00,SCT,,0.00,WeatherDisplay:10.37,2013-09-13 21:18:00,
2013-09-13 14:20:00,81.3,56.7,29.83,SSE,152,1.0,8.0,43,0.00,SCT,,0.00,WeatherDisplay:10.37,2013-09-13 21:20:00,
2013-09-13 14:21:00,81.4,56.1,29.83,SE,139,4.6,4.6,42,0.00,SCT,,0.00,WeatherDisplay:10.37,2013-09-13 21:21:00,
2013-09-13 14:23:00,81.3,56.7,29.83,SE,127,2.0,2.0,43,0.00,SCT,,0.00,WeatherDisplay:10.37,2013-09-13 21:23:00,
2013-09-13 14:25:00,81.4,56.8,29.83,South,191,2.3,2.3,43,0.00,SCT,,0.00,WeatherDisplay:10.37,2013-09-13 21:25:00,
2013-09-13 14:26:00,81.3,56.7,29.83,SSE,151,4.0,4.0,43,0.00,SCT,,0.00,WeatherDisplay:10.37,2013-09-13 21:26:00,
2013-09-13 14:28:00,81.4,56.8,29.83,ENE,66,4.6,4.6,43,0.00,SCT,,0.00,WeatherDisplay:10.37,2013-09-13 21:28:00,
2013-09-13 14:29:00,81.4,56.8,29.83,SE,132,5.8,5.8,43,0.00,SCT,,0.00,WeatherDisplay:10.37,2013-09-13 21:29:00,
2013-09-13 14:31:00,81.4,56.8,29.83,South,170,6.9,6.9,43,0.00,SCT,,0.00,WeatherDisplay:10.37,2013-09-13 21:31:00,
2013-09-13 14:32:00,81.3,56.7,29.83,SSE,155,6.0,6.0,43,0.00,SCT,,0.00,WeatherDisplay:10.37,2013-09-13 21:32:00,
2013-09-13 14:33:00,81.3,56.7,29.83,North,11,5.8,5.8,43,0.00,SCT,,0.00,WeatherDisplay:10.37,2013-09-13 21:33:00,
2013-09-13 14:34:00,81.3,56.7,29.83,SW,222,5.8,5.8,43,0.00,SCT,,0.00,WeatherDisplay:10.37,2013-09-13 21:34:00,
2013-09-13 14:37:00,81.2,56.6,29.83,SE,132,6.9,6.9,43,0.00,SCT,,0.00,WeatherDisplay:10.37,2013-09-13 21:37:00,
2013-09-13 14:38:00,81.3,56.7,29.83,SE,125,9.2,9.2,43,0.00,SCT,,0.00,WeatherDisplay:10.37,2013-09-13 21:38:00,
2013-09-13 14:39:00,81.3,56.7,29.83,SSE,149,9.2,9.2,43,0.00,SCT,,0.00,WeatherDisplay:10.37,2013-09-13 21:39:00,
2013-09-13 14:40:00,81.3,56.7,29.83,SSE,148,9.2,9.2,43,0.00,SCT,,0.00,WeatherDisplay:10.37,2013-09-13 21:40:00,
2013-09-13 14:41:00,81.3,56.7,29.83,SW,234,4.6,4.6,43,0.00,SCT,,0.00,WeatherDisplay:10.37,2013-09-13 21:41:00,
2013-09-13 14:44:00,81.2,56.6,29.83,South,175,3.5,3.5,43,0.00,SCT,,0.00,WeatherDisplay:10.37,2013-09-13 21:44:00,
2013-09-13 14:45:00,81.3,56.7,29.83,ENE,67,5.8,5.8,43,0.00,SCT,,0.00,WeatherDisplay:10.37,2013-09-13 21:45:00,
2013-09-13 14:47:00,81.3,56.7,29.83,SE,146,5.0,5.0,43,0.00,SCT,,0.00,WeatherDisplay:10.37,2013-09-13 21:47:00,
2013-09-13 14:49:00,81.3,56.7,29.83,SSE,151,4.6,4.6,43,0.00,SCT,,0.00,WeatherDisplay:10.37,2013-09-13 21:49:00,
2013-09-13 14:50:00,81.2,56.6,29.82,WSW,257,4.6,4.6,43,0.00,SCT,,0.00,WeatherDisplay:10.37,2013-09-13 21:50:00,
2013-09-13 14:51:00,81.2,56.6,29.82,SE,127,11.5,11.5,43,0.00,SCT,,0.00,WeatherDisplay:10.37,2013-09-13 21:51:00,
2013-09-13 14:52:00,81.2,56.6,29.82,ESE,113,11.5,11.5,43,0.00,SCT,,0.00,WeatherDisplay:10.37,2013-09-13 21:52:00,
2013-09-13 14:54:00,81.2,56.6,29.82,SE,136,7.0,7.0,43,0.00,SCT,,0.00,WeatherDisplay:10.37,2013-09-13 21:54:00,
2013-09-13 14:55:00,81.2,56.6,29.82,SE,131,6.9,6.9,43,0.00,SCT,,0.00,WeatherDisplay:10.37,2013-09-13 21:55:00,
2013-09-13 14:57:00,81.1,56.5,29.82,South,170,9.2,9.2,43,0.00,SCT,,0.00,WeatherDisplay:10.37,2013-09-13 21:57:00,
2013-09-13 14:58:00,81.0,56.4,29.82,SSE,157,8.1,8.1,43,0.00,SCT,,0.00,WeatherDisplay:10.37,2013-09-13 21:58:00,
2013-09-13 14:59:00,81.0,56.4,29.82,SE,132,8.1,8.1,43,0.00,SCT,,0.00,WeatherDisplay:10.37,2013-09-13 21:59:00,
2013-09-13 15:00:00,81.0,56.4,29.82,SSE,151,8.1,8.1,43,0.00,SCT,,0.00,WeatherDisplay:10.37,2013-09-13 22:00:00,
2013-09-13 15:01:00,81.0,56.4,29.82,SE,137,8.1,8.1,43,0.00,SCT,,0.00,WeatherDisplay:10.37,2013-09-13 22:01:00,
2013-09-13 15:02:00,80.9,56.3,29.82,SSE,161,9.2,9.2,43,0.00,SCT,,0.00,WeatherDisplay:10.37,2013-09-13 22:02:00,
2013-09-13 15:03:00,80.9,56.3,29.82,SE,137,5.8,5.8,43,0.00,SCT,,0.00,WeatherDisplay:10.37,2013-09-13 22:03:00,
2013-09-13 15:04:00,80.9,56.3,29.82,SSW,211,12.7,12.7,43,0.00,SCT,,0.00,WeatherDisplay:10.37,2013-09-13 22:04:00,
2013-09-13 15:05:00,80.8,56.2,29.82,SE,129,12.7,12.7,43,0.00,SCT,,0.00,WeatherDisplay:10.37,2013-09-13 22:05:00,
2013-09-13 15:06:00,80.8,56.2,29.82,SSE,162,11.5,11.5,43,0.00,SCT,,0.00,WeatherDisplay:10.37,2013-09-13 22:06:00,
2013-09-13 15:07:00,80.7,56.1,29.82,SE,141,3.5,3.5,43,0.00,SCT,,0.00,WeatherDisplay:10.37,2013-09-13 22:07:00,
2013-09-13 15:08:00,80.6,56.0,29.82,SE,137,4.6,4.6,43,0.00,SCT,,0.00,WeatherDisplay:10.37,2013-09-13 22:08:00,
2013-09-13 15:09:00,80.6,56.0,29.82,SE,136,9.2,9.2,43,0.00,SCT,,0.00,WeatherDisplay:10.37,2013-09-13 22:09:00,
2013-09-13 15:10:00,80.7,56.8,29.82,SE,134,9.2,9.2,44,0.00,SCT,,0.00,WeatherDisplay:10.37,2013-09-13 22:10:00,
2013-09-13 15:11:00,80.7,56.8,29.82,SE,133,11.0,11.0,44,0.00,SCT,,0.00,WeatherDisplay:10.37,2013-09-13 22:11:00,
2013-09-13 15:12:00,80.7,56.1,29.82,SSE,147,11.5,11.5,43,0.00,SCT,,0.00,WeatherDisplay:10.37,2013-09-13 22:12:00,
2013-09-13 15:14:00,80.6,56.0,29.82,ESE,104,6.9,6.9,43,0.00,SCT,,0.00,WeatherDisplay:10.37,2013-09-13 22:14:00,
2013-09-13 15:16:00,80.5,55.9,29.82,SE,130,6.9,6.9,43,0.00,SCT,,0.00,WeatherDisplay:10.37,2013-09-13 22:16:00,
2013-09-13 15:17:00,80.4,55.9,29.82,East,101,3.5,3.5,43,0.00,SCT,,0.00,WeatherDisplay:10.37,2013-09-13 22:17:00,
2013-09-13 15:18:00,80.4,55.9,29.82,SSW,192,5.0,5.0,43,0.00,SCT,,0.00,WeatherDisplay:10.37,2013-09-13 22:18:00,
2013-09-13 15:19:00,80.3,55.8,29.82,South,187,4.6,4.6,43,0.00,SCT,,0.00,WeatherDisplay:10.37,2013-09-13 22:19:00,
2013-09-13 15:20:00,80.3,55.8,29.82,South,175,4.6,4.6,43,0.00,SCT,,0.00,WeatherDisplay:10.37,2013-09-13 22:20:00,
2013-09-13 15:22:00,80.2,56.3,29.82,East,82,6.9,6.9,44,0.00,SCT,,0.00,WeatherDisplay:10.37,2013-09-13 22:22:00,
2013-09-13 15:24:00,80.1,56.2,29.82,SW,215,5.8,5.8,44,0.00,SCT,,0.00,WeatherDisplay:10.37,2013-09-13 22:24:00,
2013-09-13 15:25:00,80.0,55.5,29.82,SE,144,8.1,8.1,43,0.00,SCT,,0.00,WeatherDisplay:10.37,2013-09-13 22:25:00,
2013-09-13 15:27:00,80.0,56.1,29.82,South,171,11.5,11.5,44,0.00,SCT,,0.00,WeatherDisplay:10.37,2013-09-13 22:27:00,
2013-09-13 15:29:00,80.0,56.1,29.81,SE,132,6.9,6.9,44,0.00,SCT,,0.00,WeatherDisplay:10.37,2013-09-13 22:29:00,
2013-09-13 15:32:00,80.0,56.1,29.81,SE,127,3.5,3.5,44,0.00,SCT,,0.00,WeatherDisplay:10.37,2013-09-13 22:32:00,
2013-09-13 15:33:00,80.0,56.1,29.81,SE,128,8.0,8.0,44,0.00,SCT,,0.00,WeatherDisplay:10.37,2013-09-13 22:33:00,
2013-09-13 15:34:00,80.0,55.5,29.81,SSW,212,8.1,8.1,43,0.00,SCT,,0.00,WeatherDisplay:10.37,2013-09-13 22:34:00,
2013-09-13 15:35:00,80.0,56.1,29.81,ESE,116,8.1,8.1,44,0.00,SCT,,0.00,WeatherDisplay:10.37,2013-09-13 22:35:00,
2013-09-13 15:37:00,79.9,56.0,29.81,SSE,147,9.2,9.2,44,0.00,SCT,,0.00,WeatherDisplay:10.37,2013-09-13 22:37:00,
2013-09-13 15:39:00,79.9,56.0,29.81,SE,125,10.4,10.4,44,0.00,SCT,,0.00,WeatherDisplay:10.37,2013-09-13 22:39:00,
2013-09-13 15:40:00,79.9,56.0,29.81,SSE,160,6.9,6.9,44,0.00,SCT,,0.00,WeatherDisplay:10.37,2013-09-13 22:40:00,
2013-09-13 15:41:00,79.9,56.0,29.81,South,175,8.0,8.0,44,0.00,SCT,,0.00,WeatherDisplay:10.37,2013-09-13 22:41:00,
2013-09-13 15:42:00,79.9,56.0,29.81,SE,131,8.1,8.1,44,0.00,SCT,,0.00,WeatherDisplay:10.37,2013-09-13 22:42:00,
2013-09-13 15:44:00,79.9,56.0,29.81,SE,138,10.4,10.4,44,0.00,SCT,,0.00,WeatherDisplay:10.37,2013-09-13 22:44:00,
2013-09-13 15:45:00,79.9,56.0,29.81,SE,142,3.0,10.0,44,0.00,SCT,,0.00,WeatherDisplay:10.37,2013-09-13 22:45:00,
2013-09-13 15:46:00,79.9,56.0,29.81,ESE,106,10.4,10.4,44,0.00,SCT,,0.00,WeatherDisplay:10.37,2013-09-13 22:46:00,
2013-09-13 15:48:00,79.9,56.0,29.81,ESE,114,8.0,8.0,44,0.00,SCT,,0.00,WeatherDisplay:10.37,2013-09-13 22:48:00,
2013-09-13 15:49:00,79.9,56.0,29.81,SSE,154,10.4,10.4,44,0.00,SCT,,0.00,WeatherDisplay:10.37,2013-09-13 22:49:00,
2013-09-13 15:50:00,79.8,55.9,29.81,ESE,115,9.0,9.0,44,0.00,SCT,,0.00,WeatherDisplay:10.37,2013-09-13 22:50:00,
2013-09-13 15:51:00,79.8,55.9,29.81,SSE,158,8.1,8.1,44,0.00,SCT,,0.00,WeatherDisplay:10.37,2013-09-13 22:51:00,
2013-09-13 15:52:00,79.7,55.9,29.81,SSE,162,8.1,8.1,44,0.00,SCT,,0.00,WeatherDisplay:10.37,2013-09-13 22:52:00,
2013-09-13 15:53:00,79.6,55.8,29.81,ESE,123,8.1,8.1,44,0.00,SCT,,0.00,WeatherDisplay:10.37,2013-09-13 22:53:00,
2013-09-13 15:54:00,79.6,55.8,29.81,South,170,4.6,4.6,44,0.00,SCT,,0.00,WeatherDisplay:10.37,2013-09-13 22:54:00,
2013-09-13 15:55:00,79.5,55.7,29.81,ESE,115,5.8,5.8,44,0.00,SCT,,0.00,WeatherDisplay:10.37,2013-09-13 22:55:00,
2013-09-13 15:57:00,79.5,55.7,29.81,SSE,147,3.5,3.5,44,0.00,SCT,,0.00,WeatherDisplay:10.37,2013-09-13 22:57:00,
2013-09-13 15:58:00,79.4,55.6,29.81,ESE,121,8.1,8.1,44,0.00,SCT,,0.00,WeatherDisplay:10.37,2013-09-13 22:58:00,
2013-09-13 16:00:00,79.4,55.6,29.81,ESE,115,13.0,13.0,44,0.00,SCT,,0.00,WeatherDisplay:10.37,2013-09-13 23:00:00,
2013-09-13 16:02:00,79.2,56.0,29.81,SE,133,10.4,10.4,45,0.00,SCT,,0.00,WeatherDisplay:10.37,2013-09-13 23:02:00,
2013-09-13 16:03:00,79.2,56.0,29.81,SE,127,10.4,10.4,45,0.00,SCT,,0.00,WeatherDisplay:10.37,2013-09-13 23:03:00,
2013-09-13 16:06:00,79.2,55.4,29.81,SE,130,3.5,3.5,44,0.00,SCT,,0.00,WeatherDisplay:10.37,2013-09-13 23:06:00,
2013-09-13 16:07:00,79.1,55.3,29.81,SE,130,3.5,3.5,44,0.00,SCT,,0.00,WeatherDisplay:10.37,2013-09-13 23:07:00,
2013-09-13 16:08:00,79.1,55.9,29.81,SE,125,3.5,3.5,45,0.00,SCT,,0.00,WeatherDisplay:10.37,2013-09-13 23:08:00,
2013-09-13 16:09:00,79.1,55.9,29.80,SE,132,11.5,11.5,45,0.00,SCT,,0.00,WeatherDisplay:10.37,2013-09-13 23:09:00,
2013-09-13 16:11:00,79.1,55.9,29.81,ESE,114,9.0,9.0,45,0.00,SCT,,0.00,WeatherDisplay:10.37,2013-09-13 23:11:00,
2013-09-13 16:13:00,79.0,55.2,29.81,South,179,9.2,9.2,44,0.00,SCT,,0.00,WeatherDisplay:10.37,2013-09-13 23:13:00,
2013-09-13 16:14:00,79.0,55.2,29.81,SSE,157,6.9,6.9,44,0.00,SCT,,0.00,WeatherDisplay:10.37,2013-09-13 23:14:00,
2013-09-13 16:15:00,78.9,55.1,29.80,SE,127,8.0,8.0,44,0.00,SCT,,0.00,WeatherDisplay:10.37,2013-09-13 23:15:00,
2013-09-13 16:16:00,78.8,55.0,29.80,SSE,152,8.1,8.1,44,0.00,SCT,,0.00,WeatherDisplay:10.37,2013-09-13 23:16:00,
2013-09-13 16:17:00,78.7,55.6,29.80,SE,136,11.5,11.5,45,0.00,SCT,,0.00,WeatherDisplay:10.37,2013-09-13 23:17:00,
2013-09-13 16:19:00,78.6,54.9,29.81,SE,133,8.0,8.0,44,0.00,SCT,,0.00,WeatherDisplay:10.37,2013-09-13 23:19:00,
2013-09-13 16:20:00,78.6,55.5,29.81,South,185,8.1,8.1,45,0.00,SCT,,0.00,WeatherDisplay:10.37,2013-09-13 23:20:00,
2013-09-13 16:22:00,78.5,54.8,29.80,SW,226,3.5,3.5,44,0.00,SCT,,0.00,WeatherDisplay:10.37,2013-09-13 23:22:00,
2013-09-13 16:23:00,78.2,55.1,29.81,SSE,161,9.0,9.0,45,0.00,SCT,,0.00,WeatherDisplay:10.37,2013-09-13 23:23:00,
2013-09-13 16:24:00,78.1,55.6,29.80,ESE,104,3.5,3.5,46,0.00,SCT,,0.00,WeatherDisplay:10.37,2013-09-13 23:24:00,
2013-09-13 16:25:00,78.1,55.6,29.80,WNW,295,3.5,3.5,46,0.00,SCT,,0.00,WeatherDisplay:10.37,2013-09-13 23:25:00,
2013-09-13 16:27:00,78.0,55.5,29.81,South,186,7.0,7.0,46,0.00,SCT,,0.00,WeatherDisplay:10.37,2013-09-13 23:27:00,
2013-09-13 16:28:00,78.0,55.5,29.80,SSW,213,6.9,6.9,46,0.00,SCT,,0.00,WeatherDisplay:10.37,2013-09-13 23:28:00,
2013-09-13 16:29:00,78.0,55.5,29.81,SW,224,6.9,6.9,46,0.00,SCT,,0.00,WeatherDisplay:10.37,2013-09-13 23:29:00,
2013-09-13 16:30:00,77.9,56.0,29.80,SE,126,6.9,6.9,47,0.00,SCT,,0.00,WeatherDisplay:10.37,2013-09-13 23:30:00,
2013-09-13 16:33:00,77.6,55.8,29.81,SW,224,3.5,3.5,47,0.00,SCT,,0.00,WeatherDisplay:10.37,2013-09-13 23:33:00,
2013-09-13 16:35:00,77.4,55.6,29.80,SSE,149,8.1,8.1,47,0.00,SCT,,0.00,WeatherDisplay:10.37,2013-09-13 23:35:00,
2013-09-13 16:36:00,77.3,55.5,29.81,ESE,119,8.1,8.1,47,0.00,SCT,,0.00,WeatherDisplay:10.37,2013-09-13 23:36:00,
2013-09-13 16:37:00,77.2,55.4,29.81,SW,214,3.5,3.5,47,0.00,SCT,,0.00,WeatherDisplay:10.37,2013-09-13 23:37:00,
2013-09-13 16:38:00,77.1,55.9,29.80,SW,214,4.6,4.6,48,0.00,SCT,,0.00,WeatherDisplay:10.37,2013-09-13 23:38:00,
2013-09-13 16:39:00,77.1,55.3,29.81,SSW,210,4.6,4.6,47,0.00,SCT,,0.00,WeatherDisplay:10.37,2013-09-13 23:39:00,
2013-09-13 16:41:00,77.0,55.2,29.80,SW,232,3.5,3.5,47,0.00,SCT,,0.00,WeatherDisplay:10.37,2013-09-13 23:41:00,
2013-09-13 16:42:00,76.8,55.6,29.80,SW,234,6.9,6.9,48,0.00,SCT,,0.00,WeatherDisplay:10.37,2013-09-13 23:42:00,
2013-09-13 16:44:00,76.6,55.4,29.80,ESE,121,5.0,5.0,48,0.00,SCT,,0.00,WeatherDisplay:10.37,2013-09-13 23:44:00,
2013-09-13 16:45:00,76.6,55.4,29.80,SSW,213,9.0,9.0,48,0.00,SCT,,0.00,WeatherDisplay:10.37,2013-09-13 23:45:00,
2013-09-13 16:46:00,76.6,55.4,29.80,SSE,154,6.9,6.9,48,0.00,SCT,,0.00,WeatherDisplay:10.37,2013-09-13 23:46:00,
2013-09-13 16:47:00,76.5,55.3,29.80,SW,228,5.8,5.8,48,0.00,SCT,,0.00,WeatherDisplay:10.37,2013-09-13 23:47:00,
2013-09-13 16:49:00,76.5,55.3,29.81,SE,130,8.1,8.1,48,0.00,SCT,,0.00,WeatherDisplay:10.37,2013-09-13 23:49:00,
2013-09-13 16:51:00,76.5,55.3,29.81,SW,216,3.5,3.5,48,0.00,SCT,,0.00,WeatherDisplay:10.37,2013-09-13 23:51:00,
2013-09-13 16:52:00,76.3,55.2,29.81,SW,223,4.6,4.6,48,0.00,SCT,,0.00,WeatherDisplay:10.37,2013-09-13 23:52:00,
2013-09-13 16:54:00,76.1,55.5,29.80,South,182,6.9,6.9,49,0.00,SCT,,0.00,WeatherDisplay:10.37,2013-09-13 23:54:00,
2013-09-13 16:56:00,76.1,55.5,29.80,South,184,5.8,5.8,49,0.00,SCT,,0.00,WeatherDisplay:10.37,2013-09-13 23:56:00,
2013-09-13 16:57:00,76.0,55.5,29.80,NW,308,3.5,3.5,49,0.00,SCT,,0.00,WeatherDisplay:10.37,2013-09-13 23:57:00,
2013-09-13 16:58:00,76.0,55.5,29.80,ESE,109,5.8,5.8,49,0.00,SCT,,0.00,WeatherDisplay:10.37,2013-09-13 23:58:00,
2013-09-13 16:59:00,75.8,55.3,29.80,South,173,5.8,5.8,49,0.00,SCT,,0.00,WeatherDisplay:10.37,2013-09-13 23:59:00,
2013-09-13 17:00:00,75.9,55.4,29.80,SSW,194,0.0,6.0,49,0.00,SCT,,0.00,WeatherDisplay:10.37,2013-09-14 00:00:00,
2013-09-13 17:01:00,75.6,55.6,29.80,SSW,197,3.5,3.5,50,0.00,SCT,,0.00,WeatherDisplay:10.37,2013-09-14 00:01:00,
2013-09-13 17:02:00,75.5,55.0,29.80,SW,216,2.3,2.3,49,0.00,SCT,,0.00,WeatherDisplay:10.37,2013-09-14 00:02:00,
2013-09-13 17:03:00,75.2,55.3,29.80,SE,126,2.3,2.3,50,0.00,SCT,,0.00,WeatherDisplay:10.37,2013-09-14 00:03:00,
2013-09-13 17:04:00,75.1,55.2,29.80,SSW,212,1.2,1.2,50,0.00,SCT,,0.00,WeatherDisplay:10.37,2013-09-14 00:04:00,
2013-09-13 17:05:00,75.0,55.1,29.80,SW,214,3.5,3.5,50,0.00,SCT,,0.00,WeatherDisplay:10.37,2013-09-14 00:05:00,
2013-09-13 17:07:00,74.7,54.8,29.80,SSW,206,4.6,4.6,50,0.00,SCT,,0.00,WeatherDisplay:10.37,2013-09-14 00:07:00,
2013-09-13 17:08:00,74.6,55.3,29.80,ESE,110,1.2,1.2,51,0.00,SCT,,0.00,WeatherDisplay:10.37,2013-09-14 00:08:00,
2013-09-13 17:09:00,74.6,55.3,29.80,SE,127,1.2,1.2,51,0.00,SCT,,0.00,WeatherDisplay:10.37,2013-09-14 00:09:00,
2013-09-13 17:10:00,74.6,54.7,29.80,SSE,168,6.9,6.9,50,0.00,SCT,,0.00,WeatherDisplay:10.37,2013-09-14 00:10:00,
2013-09-13 17:12:00,74.3,54.5,29.80,SSE,150,4.6,4.6,50,0.00,SCT,,0.00,WeatherDisplay:10.37,2013-09-14 00:12:00,
2013-09-13 17:13:00,74.3,55.0,29.80,NNE,27,4.6,4.6,51,0.00,SCT,,0.00,WeatherDisplay:10.37,2013-09-14 00:13:00,
2013-09-13 17:14:00,74.3,55.0,29.80,WSW,238,4.6,4.6,51,0.00,SCT,,0.00,WeatherDisplay:10.37,2013-09-14 00:14:00,
2013-09-13 17:15:00,74.2,54.9,29.80,South,169,3.5,3.5,51,0.00,SCT,,0.00,WeatherDisplay:10.37,2013-09-14 00:15:00,
2013-09-13 17:17:00,74.0,54.7,29.80,SSW,196,3.5,3.5,51,0.00,SCT,,0.00,WeatherDisplay:10.37,2013-09-14 00:17:00,
2013-09-13 17:19:00,73.9,55.2,29.80,SSW,210,3.5,3.5,52,0.00,SCT,,0.00,WeatherDisplay:10.37,2013-09-14 00:19:00,
2013-09-13 17:20:00,73.9,55.1,29.80,SSW,193,0.0,8.0,52,0.00,SCT,,0.00,WeatherDisplay:10.37,2013-09-14 00:20:00,
2013-09-13 17:21:00,73.8,54.5,29.80,SSW,205,4.6,4.6,51,0.00,SCT,,0.00,WeatherDisplay:10.37,2013-09-14 00:21:00,
2013-09-13 17:23:00,73.6,54.9,29.80,NNW,328,5.8,5.8,52,0.00,SCT,,0.00,WeatherDisplay:10.37,2013-09-14 00:23:00,
2013-09-13 17:24:00,73.6,54.9,29.80,SSW,207,5.8,5.8,52,0.00,SCT,,0.00,WeatherDisplay:10.37,2013-09-14 00:24:00,
2013-09-13 17:25:00,73.5,54.8,29.80,SSW,206,2.0,6.0,52,0.00,SCT,,0.00,WeatherDisplay:10.37,2013-09-14 00:25:00,
2013-09-13 17:26:00,73.3,54.6,29.80,SW,224,5.8,5.8,52,0.00,SCT,,0.00,WeatherDisplay:10.37,2013-09-14 00:26:00,
2013-09-13 17:28:00,73.3,55.1,29.80,SSW,212,4.0,4.0,53,0.00,SCT,,0.00,WeatherDisplay:10.37,2013-09-14 00:28:00,
2013-09-13 17:30:00,73.2,55.0,29.80,SSW,199,3.5,3.5,53,0.00,SCT,,0.00,WeatherDisplay:10.37,2013-09-14 00:30:00,
2013-09-13 17:31:00,73.1,54.9,29.80,WSW,237,11.5,11.5,53,0.00,SCT,,0.00,WeatherDisplay:10.37,2013-09-14 00:31:00,
2013-09-13 17:32:00,73.0,54.9,29.79,SSW,209,3.5,3.5,53,0.00,SCT,,0.00,WeatherDisplay:10.37,2013-09-14 00:32:00,
2013-09-13 17:35:00,72.6,55.0,29.79,SSW,202,5.8,5.8,54,0.00,SCT,,0.00,WeatherDisplay:10.37,2013-09-14 00:35:00,
2013-09-13 17:37:00,72.3,55.2,29.80,SW,215,5.8,5.8,55,0.00,SCT,,0.00,WeatherDisplay:10.37,2013-09-14 00:37:00,
2013-09-13 17:38:00,72.3,55.2,29.79,SSW,212,3.5,3.5,55,0.00,SCT,,0.00,WeatherDisplay:10.37,2013-09-14 00:38:00,
2013-09-13 17:40:00,72.2,54.6,29.79,SW,221,3.5,3.5,54,0.00,SCT,,0.00,WeatherDisplay:10.37,2013-09-14 00:40:00,
2013-09-13 17:42:00,72.0,54.9,29.80,South,190,4.6,4.6,55,0.00,SCT,,0.00,WeatherDisplay:10.37,2013-09-14 00:42:00,
2013-09-13 17:43:00,71.9,54.9,29.79,SSW,195,4.6,4.6,55,0.00,SCT,,0.00,WeatherDisplay:10.37,2013-09-14 00:43:00,
2013-09-13 17:45:00,71.7,54.7,29.80,SSW,204,9.2,9.2,55,0.00,SCT,,0.00,WeatherDisplay:10.37,2013-09-14 00:45:00,
2013-09-13 17:47:00,71.4,54.9,29.79,SSW,198,5.0,5.0,56,0.00,SCT,,0.00,WeatherDisplay:10.37,2013-09-14 00:47:00,
2013-09-13 17:48:00,71.4,54.9,29.80,South,169,4.6,4.6,56,0.00,SCT,,0.00,WeatherDisplay:10.37,2013-09-14 00:48:00,
2013-09-13 17:49:00,71.5,55.0,29.80,SW,235,3.5,3.5,56,0.00,SCT,,0.00,WeatherDisplay:10.37,2013-09-14 00:49:00,
2013-09-13 17:50:00,71.4,54.9,29.80,SW,227,3.5,3.5,56,0.00,SCT,,0.00,WeatherDisplay:10.37,2013-09-14 00:50:00,
2013-09-13 17:51:00,71.3,54.8,29.80,SSW,211,6.9,6.9,56,0.00,SCT,,0.00,WeatherDisplay:10.37,2013-09-14 00:51:00,
2013-09-13 17:53:00,71.1,55.1,29.80,SSW,205,6.9,6.9,57,0.00,SCT,,0.00,WeatherDisplay:10.37,2013-09-14 00:53:00,
2013-09-13 17:55:00,71.0,55.0,29.80,South,180,3.5,3.5,57,0.00,SCT,,0.00,WeatherDisplay:10.37,2013-09-14 00:55:00,
2013-09-13 17:56:00,71.0,55.0,29.80,SSW,212,3.5,3.5,57,0.00,SCT,,0.00,WeatherDisplay:10.37,2013-09-14 00:56:00,
2013-09-13 17:58:00,70.9,54.9,29.80,SSW,207,5.8,5.8,57,0.00,SCT,,0.00,WeatherDisplay:10.37,2013-09-14 00:58:00,
2013-09-13 18:00:00,70.8,55.3,29.80,SSW,209,1.0,8.0,58,0.00,SCT,,0.00,WeatherDisplay:10.37,2013-09-14 01:00:00,
2013-09-13 18:01:00,70.7,55.2,29.80,SE,143,4.6,4.6,58,0.00,SCT,,0.00,WeatherDisplay:10.37,2013-09-14 01:01:00,
2013-09-13 18:03:00,70.5,55.0,29.80,West,268,3.5,3.5,58,0.00,SCT,,0.00,WeatherDisplay:10.37,2013-09-14 01:03:00,
2013-09-13 18:06:00,70.4,54.9,29.79,SE,124,4.6,4.6,58,0.00,SCT,,0.00,WeatherDisplay:10.37,2013-09-14 01:06:00,
2013-09-13 18:07:00,70.4,54.9,29.79,ESE,109,3.5,3.5,58,0.00,SCT,,0.00,WeatherDisplay:10.37,2013-09-14 01:07:00,
2013-09-13 18:08:00,70.4,54.9,29.80,ENE,78,3.5,3.5,58,0.00,SCT,,0.00,WeatherDisplay:10.37,2013-09-14 01:08:00,
2013-09-13 18:10:00,70.5,55.0,29.79,SW,222,3.5,3.5,58,0.00,SCT,,0.00,WeatherDisplay:10.37,2013-09-14 01:10:00,
2013-09-13 18:11:00,70.6,55.1,29.80,SW,226,3.5,0.0,58,0.00,SCT,,0.00,WeatherDisplay:10.37,2013-09-14 01:11:00,
2013-09-13 18:12:00,70.6,55.1,29.80,SSE,149,1.2,1.2,58,0.00,SCT,,0.00,WeatherDisplay:10.37,2013-09-14 01:12:00,
2013-09-13 18:13:00,70.6,55.1,29.80,SE,124,1.2,1.2,58,0.00,SCT,,0.00,WeatherDisplay:10.37,2013-09-14 01:13:00,
2013-09-13 18:15:00,70.6,55.6,29.80,SSE,165,3.5,3.5,59,0.00,SCT,,0.00,WeatherDisplay:10.37,2013-09-14 01:15:00,
2013-09-13 18:16:00,70.5,55.0,29.80,SE,137,3.5,3.5,58,0.00,SCT,,0.00,WeatherDisplay:10.37,2013-09-14 01:16:00,
2013-09-13 18:17:00,70.5,55.5,29.80,East,94,3.5,3.5,59,0.00,SCT,,0.00,WeatherDisplay:10.37,2013-09-14 01:17:00,
2013-09-13 18:19:00,70.6,55.6,29.80,SSE,163,2.0,2.0,59,0.00,SCT,,0.00,WeatherDisplay:10.37,2013-09-14 01:19:00,
2013-09-13 18:20:00,70.5,55.5,29.80,SSE,164,2.3,2.3,59,0.00,SCT,,0.00,WeatherDisplay:10.37,2013-09-14 01:20:00,
2013-09-13 18:21:00,70.4,55.4,29.80,SE,136,6.9,6.9,59,0.00,SCT,,0.00,WeatherDisplay:10.37,2013-09-14 01:21:00,
2013-09-13 18:22:00,70.4,55.4,29.80,SE,126,6.9,6.9,59,0.00,SCT,,0.00,WeatherDisplay:10.37,2013-09-14 01:22:00,
2013-09-13 18:24:00,70.3,55.3,29.80,SW,225,3.5,3.5,59,0.00,SCT,,0.00,WeatherDisplay:10.37,2013-09-14 01:24:00,
2013-09-13 18:25:00,70.2,55.2,29.80,SSE,165,3.5,3.5,59,0.00,SCT,,0.00,WeatherDisplay:10.37,2013-09-14 01:25:00,
2013-09-13 18:26:00,70.1,55.1,29.80,SSE,158,3.5,3.5,59,0.00,SCT,,0.00,WeatherDisplay:10.37,2013-09-14 01:26:00,
2013-09-13 18:27:00,70.1,55.1,29.80,SSE,160,3.5,3.5,59,0.00,SCT,,0.00,WeatherDisplay:10.37,2013-09-14 01:27:00,
2013-09-13 18:28:00,70.0,55.0,29.80,SE,133,4.6,4.6,59,0.00,SCT,,0.00,WeatherDisplay:10.37,2013-09-14 01:28:00,
2013-09-13 18:30:00,69.9,55.4,29.80,SE,131,9.0,9.0,60,0.00,SCT,,0.00,WeatherDisplay:10.37,2013-09-14 01:30:00,
2013-09-13 18:31:00,69.7,55.2,29.80,East,88,9.2,9.2,60,0.00,SCT,,0.00,WeatherDisplay:10.37,2013-09-14 01:31:00,
2013-09-13 18:33:00,69.6,55.1,29.80,SE,133,3.5,3.5,60,0.00,SCT,,0.00,WeatherDisplay:10.37,2013-09-14 01:33:00,
2013-09-13 18:34:00,69.6,55.1,29.80,SSE,156,9.2,9.2,60,0.00,SCT,,0.00,WeatherDisplay:10.37,2013-09-14 01:34:00,
2013-09-13 18:36:00,69.3,55.3,29.80,South,184,8.1,8.1,61,0.00,SCT,,0.00,WeatherDisplay:10.37,2013-09-14 01:36:00,
2013-09-13 18:37:00,69.2,55.2,29.80,SE,131,3.5,3.5,61,0.00,SCT,,0.00,WeatherDisplay:10.37,2013-09-14 01:37:00,
2013-09-13 18:38:00,69.3,55.3,29.80,ESE,105,3.5,3.5,61,0.00,SCT,,0.00,WeatherDisplay:10.37,2013-09-14 01:38:00,
2013-09-13 18:39:00,69.2,55.2,29.80,SE,139,6.0,6.0,61,0.00,SCT,,0.00,WeatherDisplay:10.37,2013-09-14 01:39:00,
2013-09-13 18:41:00,69.1,55.1,29.80,SE,141,5.8,5.8,61,0.00,SCT,,0.00,WeatherDisplay:10.37,2013-09-14 01:41:00,
2013-09-13 18:43:00,69.0,55.4,29.80,South,179,6.9,6.9,62,0.00,SCT,,0.00,WeatherDisplay:10.37,2013-09-14 01:43:00,
2013-09-13 18:44:00,68.9,55.3,29.80,South,172,9.2,9.2,62,0.00,SCT,,0.00,WeatherDisplay:10.37,2013-09-14 01:44:00,
2013-09-13 18:45:00,68.8,55.3,29.80,SE,143,2.0,10.0,62,0.00,SCT,,0.00,WeatherDisplay:10.37,2013-09-14 01:45:00,
2013-09-13 18:46:00,68.6,55.1,29.80,South,178,9.2,9.2,62,0.00,SCT,,0.00,WeatherDisplay:10.37,2013-09-14 01:46:00,
2013-09-13 18:47:00,68.5,55.0,29.80,ESE,113,9.2,9.2,62,0.00,SCT,,0.00,WeatherDisplay:10.37,2013-09-14 01:47:00,
2013-09-13 18:48:00,68.3,55.2,29.80,SSW,200,9.2,9.2,63,0.00,SCT,,0.00,WeatherDisplay:10.37,2013-09-14 01:48:00,
2013-09-13 18:49:00,68.3,55.2,29.80,SE,129,6.0,6.0,63,0.00,SCT,,0.00,WeatherDisplay:10.37,2013-09-14 01:49:00,
2013-09-13 18:50:00,68.2,55.1,29.80,SE,128,5.8,5.8,63,0.00,SCT,,0.00,WeatherDisplay:10.37,2013-09-14 01:50:00,
2013-09-13 18:51:00,68.2,55.1,29.80,SE,127,9.0,9.0,63,0.00,SCT,,0.00,WeatherDisplay:10.37,2013-09-14 01:51:00,
2013-09-13 18:52:00,68.2,55.1,29.80,SSE,154,9.2,9.2,63,0.00,SCT,,0.00,WeatherDisplay:10.37,2013-09-14 01:52:00,
2013-09-13 18:53:00,68.1,55.0,29.80,South,178,2.3,2.3,63,0.00,SCT,,0.00,WeatherDisplay:10.37,2013-09-14 01:53:00,
2013-09-13 18:54:00,68.1,55.0,29.80,South,175,2.3,2.3,63,0.00,SCT,,0.00,WeatherDisplay:10.37,2013-09-14 01:54:00,
2013-09-13 18:55:00,68.1,55.0,29.80,SE,143,5.8,5.8,63,0.00,SCT,,0.00,WeatherDisplay:10.37,2013-09-14 01:55:00,
2013-09-13 18:57:00,67.9,54.8,29.80,SE,137,4.6,4.6,63,0.00,SCT,,0.00,WeatherDisplay:10.37,2013-09-14 01:57:00,
2013-09-13 18:58:00,67.9,55.3,29.80,SE,136,5.0,5.0,64,0.00,SCT,,0.00,WeatherDisplay:10.37,2013-09-14 01:58:00,
2013-09-13 18:59:00,67.8,55.2,29.80,SE,135,6.9,6.9,64,0.00,SCT,,0.00,WeatherDisplay:10.37,2013-09-14 01:59:00,
2013-09-13 19:03:00,67.6,55.0,29.80,ESE,117,8.1,8.1,64,0.00,SCT,,0.00,WeatherDisplay:10.37,2013-09-14 02:03:00,
2013-09-13 19:04:00,67.6,55.0,29.80,SSE,162,3.0,3.0,64,0.00,SCT,,0.00,WeatherDisplay:10.37,2013-09-14 02:04:00,
2013-09-13 19:05:00,67.5,54.9,29.80,SE,130,5.8,5.8,64,0.00,SCT,,0.00,WeatherDisplay:10.37,2013-09-14 02:05:00,
2013-09-13 19:09:00,67.4,55.2,29.80,SE,126,2.3,2.3,65,0.00,SCT,,0.00,WeatherDisplay:10.37,2013-09-14 02:09:00,
2013-09-13 19:10:00,67.3,55.1,29.80,SE,128,4.0,4.0,65,0.00,SCT,,0.00,WeatherDisplay:10.37,2013-09-14 02:10:00,
2013-09-13 19:11:00,67.2,55.0,29.80,SW,218,4.0,4.0,65,0.00,SCT,,0.00,WeatherDisplay:10.37,2013-09-14 02:11:00,
2013-09-13 19:15:00,66.9,55.2,29.80,SW,219,2.3,2.3,66,0.00,SCT,,0.00,WeatherDisplay:10.37,2013-09-14 02:15:00,
2013-09-13 19:16:00,66.9,55.2,29.80,SSE,167,2.3,2.3,66,0.00,SCT,,0.00,WeatherDisplay:10.37,2013-09-14 02:16:00,
2013-09-13 19:17:00,66.7,55.0,29.80,South,171,2.3,2.3,66,0.00,SCT,,0.00,WeatherDisplay:10.37,2013-09-14 02:17:00,
2013-09-13 19:18:00,66.4,54.7,29.81,SE,131,3.5,3.5,66,0.00,SCT,,0.00,WeatherDisplay:10.37,2013-09-14 02:18:00,
2013-09-13 19:20:00,66.3,54.6,29.80,SE,133,3.5,3.5,66,0.00,SCT,,0.00,WeatherDisplay:10.37,2013-09-14 02:20:00,
2013-09-13 19:21:00,66.2,54.9,29.80,SSE,157,3.5,3.5,67,0.00,SCT,,0.00,WeatherDisplay:10.37,2013-09-14 02:21:00,
2013-09-13 19:22:00,66.2,54.9,29.80,ESE,117,3.5,3.5,67,0.00,SCT,,0.00,WeatherDisplay:10.37,2013-09-14 02:22:00,
2013-09-13 19:23:00,66.1,54.8,29.80,SSW,207,4.6,4.6,67,0.00,SCT,,0.00,WeatherDisplay:10.37,2013-09-14 02:23:00,
2013-09-13 19:25:00,66.0,54.7,29.80,South,170,1.0,5.0,67,0.00,SCT,,0.00,WeatherDisplay:10.37,2013-09-14 02:25:00,
2013-09-13 19:27:00,65.6,54.3,29.80,SE,129,6.0,6.0,67,0.00,SCT,,0.00,WeatherDisplay:10.37,2013-09-14 02:27:00,
2013-09-13 19:29:00,65.5,54.7,29.80,SE,130,3.0,3.0,68,0.00,SCT,,0.00,WeatherDisplay:10.37,2013-09-14 02:29:00,
2013-09-13 19:30:00,65.4,54.6,29.80,South,180,3.5,3.5,68,0.00,SCT,,0.00,WeatherDisplay:10.37,2013-09-14 02:30:00,
2013-09-13 19:31:00,65.3,54.5,29.80,ESE,120,3.5,3.5,68,0.00,SCT,,0.00,WeatherDisplay:10.37,2013-09-14 02:31:00,
2013-09-13 19:32:00,65.2,54.4,29.80,SSW,208,4.0,4.0,68,0.00,SCT,,0.00,WeatherDisplay:10.37,2013-09-14 02:32:00,
2013-09-13 19:33:00,65.2,54.4,29.80,South,183,4.0,4.0,68,0.00,SCT,,0.00,WeatherDisplay:10.37,2013-09-14 02:33:00,
2013-09-13 19:34:00,65.2,54.4,29.80,SE,136,3.5,3.5,68,0.00,SCT,,0.00,WeatherDisplay:10.37,2013-09-14 02:34:00,
2013-09-13 19:35:00,58.9,53.1,29.81,SE,130,1.0,7.0,81,0.00,CLR,,0.00,WeatherDisplay:10.37,2013-09-14 02:35:00,
2013-09-13 19:36:00,65.3,54.5,29.80,SE,141,3.5,3.5,68,0.00,SCT,,0.00,WeatherDisplay:10.37,2013-09-14 02:36:00,
2013-09-13 19:37:00,65.2,54.4,29.80,South,182,2.0,2.0,68,0.00,SCT,,0.00,WeatherDisplay:10.37,2013-09-14 02:37:00,
2013-09-13 19:38:00,65.2,54.4,29.80,ENE,71,4.6,4.6,68,0.00,SCT,,0.00,WeatherDisplay:10.37,2013-09-14 02:38:00,
2013-09-13 19:39:00,65.0,54.6,29.80,WSW,257,3.5,0.0,69,0.00,SCT,,0.00,WeatherDisplay:10.37,2013-09-14 02:39:00,
2013-09-13 19:40:00,58.9,53.1,29.81,SSE,150,1.0,6.0,81,0.00,CLR,,0.00,WeatherDisplay:10.37,2013-09-14 02:40:00,
2013-09-13 19:42:00,64.8,54.4,29.80,SSE,162,4.0,4.0,69,0.00,SCT,,0.00,WeatherDisplay:10.37,2013-09-14 02:42:00,
2013-09-13 19:43:00,64.6,54.2,29.80,ENE,73,3.5,0.0,69,0.00,SCT,,0.00,WeatherDisplay:10.37,2013-09-14 02:43:00,
2013-09-13 19:44:00,64.5,54.5,29.80,NNW,338,0.0,0.0,70,0.00,SCT,,0.00,WeatherDisplay:10.37,2013-09-14 02:44:00,
2013-09-13 19:45:00,64.4,54.4,29.80,NNW,337,0.0,0.0,70,0.00,SCT,,0.00,WeatherDisplay:10.37,2013-09-14 02:45:00,
2013-09-13 19:47:00,64.4,54.4,29.80,ESE,109,3.5,3.5,70,0.00,SCT,,0.00,WeatherDisplay:10.37,2013-09-14 02:47:00,
2013-09-13 19:48:00,64.4,54.4,29.80,ESE,109,3.5,3.5,70,0.00,SCT,,0.00,WeatherDisplay:10.37,2013-09-14 02:48:00,
2013-09-13 19:49:00,64.3,54.3,29.80,NNE,14,1.2,1.2,70,0.00,SCT,,0.00,WeatherDisplay:10.37,2013-09-14 02:49:00,
2013-09-13 19:50:00,64.2,54.2,29.80,East,98,4.6,4.6,70,0.00,SCT,,0.00,WeatherDisplay:10.37,2013-09-14 02:50:00,
2013-09-13 19:52:00,64.2,54.2,29.80,East,93,2.3,2.3,70,0.00,SCT,,0.00,WeatherDisplay:10.37,2013-09-14 02:52:00,
2013-09-13 19:53:00,64.2,54.6,29.80,ESE,108,2.3,2.3,71,0.00,SCT,,0.00,WeatherDisplay:10.37,2013-09-14 02:53:00,
2013-09-13 19:54:00,64.2,54.2,29.80,SE,135,6.9,6.9,70,0.00,SCT,,0.00,WeatherDisplay:10.37,2013-09-14 02:54:00,
2013-09-13 19:55:00,64.3,54.3,29.80,SE,125,8.1,8.1,70,0.00,SCT,,0.00,WeatherDisplay:10.37,2013-09-14 02:55:00,
2013-09-13 19:56:00,64.3,54.3,29.80,SE,125,8.1,8.1,70,0.00,SCT,,0.00,WeatherDisplay:10.37,2013-09-14 02:56:00,
2013-09-13 19:59:00,64.2,54.6,29.80,SW,224,3.5,3.5,71,0.00,SCT,,0.00,WeatherDisplay:10.37,2013-09-14 02:59:00,
2013-09-13 20:00:00,64.1,54.5,29.80,ESE,113,2.0,2.0,71,0.00,SCT,,0.00,WeatherDisplay:10.37,2013-09-14 03:00:00,
2013-09-13 20:01:00,64.1,54.5,29.80,SE,138,3.5,3.5,71,0.00,SCT,,0.00,WeatherDisplay:10.37,2013-09-14 03:01:00,
2013-09-13 20:03:00,64.1,54.5,29.80,SSE,168,11.5,11.5,71,0.00,SCT,,0.00,WeatherDisplay:10.37,2013-09-14 03:03:00,
2013-09-13 20:04:00,64.0,54.4,29.80,SSE,150,5.8,5.8,71,0.00,SCT,,0.00,WeatherDisplay:10.37,2013-09-14 03:04:00,
2013-09-13 20:05:00,64.0,54.0,29.80,SE,146,5.8,5.8,70,0.00,SCT,,0.00,WeatherDisplay:10.37,2013-09-14 03:05:00,
2013-09-13 20:06:00,64.1,54.5,29.81,SSW,206,10.4,10.4,71,0.00,SCT,,0.00,WeatherDisplay:10.37,2013-09-14 03:06:00,
2013-09-13 20:07:00,64.1,54.5,29.81,SSW,206,3.5,3.5,71,0.00,SCT,,0.00,WeatherDisplay:10.37,2013-09-14 03:07:00,
2013-09-13 20:09:00,64.0,54.0,29.81,SSW,203,0.0,0.1,70,0.00,SCT,,0.00,WeatherDisplay:10.37,2013-09-14 03:09:00,
2013-09-13 20:11:00,63.7,54.1,29.81,SSW,201,1.2,1.2,71,0.00,SCT,,0.00,WeatherDisplay:10.37,2013-09-14 03:11:00,
2013-09-13 20:12:00,63.7,54.1,29.81,ESE,112,1.2,1.2,71,0.00,SCT,,0.00,WeatherDisplay:10.37,2013-09-14 03:12:00,
2013-09-13 20:13:00,63.7,54.1,29.81,SE,134,1.2,1.2,71,0.00,SCT,,0.00,WeatherDisplay:10.37,2013-09-14 03:13:00,
2013-09-13 20:15:00,63.8,54.2,29.80,SSW,195,1.2,1.2,71,0.00,SCT,,0.00,WeatherDisplay:10.37,2013-09-14 03:15:00,
2013-09-13 20:17:00,63.9,53.9,29.81,SE,141,2.0,2.0,70,0.00,SCT,,0.00,WeatherDisplay:10.37,2013-09-14 03:17:00,
2013-09-13 20:18:00,64.0,54.4,29.81,South,174,3.5,3.5,71,0.00,SCT,,0.00,WeatherDisplay:10.37,2013-09-14 03:18:00,
2013-09-13 20:19:00,64.1,54.1,29.81,SSW,192,3.5,3.5,70,0.00,SCT,,0.00,WeatherDisplay:10.37,2013-09-14 03:19:00,
2013-09-13 20:20:00,59.0,53.2,29.82,SE,132,0.0,2.0,81,0.00,CLR,,0.00,WeatherDisplay:10.37,2013-09-14 03:20:00,
2013-09-13 20:21:00,64.0,54.0,29.81,SE,124,3.5,3.5,70,0.00,SCT,,0.00,WeatherDisplay:10.37,2013-09-14 03:21:00,
2013-09-13 20:22:00,64.1,54.1,29.81,ESE,114,6.9,6.9,70,0.00,SCT,,0.00,WeatherDisplay:10.37,2013-09-14 03:22:00,
2013-09-13 20:23:00,64.1,54.1,29.81,ESE,114,6.9,6.9,70,0.00,SCT,,0.00,WeatherDisplay:10.37,2013-09-14 03:23:00,
2013-09-13 20:24:00,64.1,54.5,29.81,East,100,3.0,3.0,71,0.00,SCT,,0.00,WeatherDisplay:10.37,2013-09-14 03:24:00,
2013-09-13 20:25:00,59.1,53.3,29.82,East,95,0.0,2.0,81,0.00,CLR,,0.00,WeatherDisplay:10.37,2013-09-14 03:25:00,
2013-09-13 20:26:00,64.1,54.1,29.81,SE,143,3.5,3.5,70,0.00,SCT,,0.00,WeatherDisplay:10.37,2013-09-14 03:26:00,
2013-09-13 20:28:00,64.1,54.1,29.81,South,175,5.8,5.8,70,0.00,SCT,,0.00,WeatherDisplay:10.37,2013-09-14 03:28:00,
2013-09-13 20:30:00,59.1,53.3,29.82,NE,41,1.0,3.0,81,0.00,CLR,,0.00,WeatherDisplay:10.37,2013-09-14 03:30:00,
2013-09-13 20:31:00,63.9,53.9,29.81,NW,304,2.3,2.3,70,0.00,SCT,,0.00,WeatherDisplay:10.37,2013-09-14 03:31:00,
2013-09-13 20:32:00,63.9,53.9,29.81,NW,304,2.3,2.3,70,0.00,SCT,,0.00,WeatherDisplay:10.37,2013-09-14 03:32:00,
2013-09-13 20:33:00,63.7,54.1,29.81,NW,304,2.3,2.3,71,0.00,SCT,,0.00,WeatherDisplay:10.37,2013-09-14 03:33:00,
2013-09-13 20:35:00,63.6,54.0,29.81,West,271,1.2,1.2,71,0.00,SCT,,0.00,WeatherDisplay:10.37,2013-09-14 03:35:00,
2013-09-13 20:37:00,63.6,54.0,29.82,SSE,155,2.3,2.3,71,0.00,SCT,,0.00,WeatherDisplay:10.37,2013-09-14 03:37:00,
2013-09-13 20:38:00,63.5,53.9,29.82,SE,125,3.5,3.5,71,0.00,SCT,,0.00,WeatherDisplay:10.37,2013-09-14 03:38:00,
2013-09-13 20:39:00,63.5,53.9,29.82,SE,125,3.5,3.5,71,0.00,SCT,,0.00,WeatherDisplay:10.37,2013-09-14 03:39:00,
2013-09-13 20:40:00,63.6,54.0,29.82,SE,146,3.0,3.0,71,0.00,SCT,,0.00,WeatherDisplay:10.37,2013-09-14 03:40:00,
2013-09-13 20:41:00,63.6,54.0,29.82,SSE,151,2.3,2.3,71,0.00,SCT,,0.00,WeatherDisplay:10.37,2013-09-14 03:41:00,
2013-09-13 20:42:00,63.6,54.0,29.82,SSE,158,1.2,1.2,71,0.00,SCT,,0.00,WeatherDisplay:10.37,2013-09-14 03:42:00,
2013-09-13 20:43:00,63.6,54.0,29.82,SSE,158,1.2,1.2,71,0.00,SCT,,0.00,WeatherDisplay:10.37,2013-09-14 03:43:00,
2013-09-13 20:44:00,63.6,54.0,29.82,SE,141,5.0,5.0,71,0.00,SCT,,0.00,WeatherDisplay:10.37,2013-09-14 03:44:00,
2013-09-13 20:45:00,63.5,53.9,29.82,ESE,107,4.6,4.6,71,0.00,SCT,,0.00,WeatherDisplay:10.37,2013-09-14 03:45:00,
2013-09-13 20:46:00,63.5,53.9,29.82,SSE,166,1.2,1.2,71,0.00,SCT,,0.00,WeatherDisplay:10.37,2013-09-14 03:46:00,
2013-09-13 20:47:00,63.4,53.8,29.82,SSW,207,2.0,2.0,71,0.00,SCT,,0.00,WeatherDisplay:10.37,2013-09-14 03:47:00,
2013-09-13 20:48:00,63.4,53.8,29.81,SW,219,4.0,4.0,71,0.00,SCT,,0.00,WeatherDisplay:10.37,2013-09-14 03:48:00,
2013-09-13 20:50:00,63.4,53.8,29.81,SSW,198,4.6,4.6,71,0.00,SCT,,0.00,WeatherDisplay:10.37,2013-09-14 03:50:00,
2013-09-13 20:52:00,63.4,53.8,29.82,ENE,75,1.2,1.2,71,0.00,SCT,,0.00,WeatherDisplay:10.37,2013-09-14 03:52:00,
2013-09-13 20:54:00,63.3,53.7,29.81,SSE,148,4.6,4.6,71,0.00,SCT,,0.00,WeatherDisplay:10.37,2013-09-14 03:54:00,
2013-09-13 20:55:00,63.2,54.0,29.82,SSE,168,3.5,3.5,72,0.00,SCT,,0.00,WeatherDisplay:10.37,2013-09-14 03:55:00,
2013-09-13 20:56:00,63.2,54.0,29.82,South,182,3.5,3.5,72,0.00,SCT,,0.00,WeatherDisplay:10.37,2013-09-14 03:56:00,
2013-09-13 20:57:00,63.2,54.0,29.82,ESE,116,2.3,2.3,72,0.00,SCT,,0.00,WeatherDisplay:10.37,2013-09-14 03:57:00,
2013-09-13 20:59:00,63.2,53.6,29.82,ESE,117,1.2,1.2,71,0.00,SCT,,0.00,WeatherDisplay:10.37,2013-09-14 03:59:00,
2013-09-13 21:00:00,58.6,53.1,29.82,SE,124,0.0,8.0,82,0.00,CLR,,0.00,WeatherDisplay:10.37,2013-09-14 04:00:00,
2013-09-13 21:01:00,63.2,53.6,29.82,SE,125,1.2,1.2,71,0.00,SCT,,0.00,WeatherDisplay:10.37,2013-09-14 04:01:00,
2013-09-13 21:02:00,63.2,53.6,29.82,SE,126,5.0,5.0,71,0.00,SCT,,0.00,WeatherDisplay:10.37,2013-09-14 04:02:00,
2013-09-13 21:05:00,58.7,52.9,29.82,SE,143,1.0,5.0,81,0.00,CLR,,0.00,WeatherDisplay:10.37,2013-09-14 04:05:00,
2013-09-13 21:06:00,63.1,53.9,29.82,ESE,118,3.5,3.5,72,0.00,SCT,,0.00,WeatherDisplay:10.37,2013-09-14 04:06:00,
2013-09-13 21:07:00,63.1,53.5,29.82,ESE,120,1.2,1.2,71,0.00,SCT,,0.00,WeatherDisplay:10.37,2013-09-14 04:07:00,
2013-09-13 21:08:00,63.1,53.5,29.81,SE,142,2.0,2.0,71,0.00,SCT,,0.00,WeatherDisplay:10.37,2013-09-14 04:08:00,
2013-09-13 21:10:00,58.7,52.9,29.82,SE,131,0.0,3.0,81,0.00,CLR,,0.00,WeatherDisplay:10.37,2013-09-14 04:10:00,
2013-09-13 21:11:00,63.1,53.9,29.82,South,181,10.4,10.4,72,0.00,SCT,,0.00,WeatherDisplay:10.37,2013-09-14 04:11:00,
2013-09-13 21:12:00,63.0,53.8,29.81,SE,146,4.6,4.6,72,0.00,SCT,,0.00,WeatherDisplay:10.37,2013-09-14 04:12:00,
2013-09-13 21:13:00,63.0,53.8,29.82,SE,128,8.1,8.1,72,0.00,SCT,,0.00,WeatherDisplay:10.37,2013-09-14 04:13:00,
2013-09-13 21:15:00,58.7,52.9,29.82,SE,146,0.0,3.0,81,0.00,CLR,,0.00,WeatherDisplay:10.37,2013-09-14 04:15:00,
2013-09-13 21:17:00,62.8,53.6,29.82,South,191,4.6,4.6,72,0.00,SCT,,0.00,WeatherDisplay:10.37,2013-09-14 04:17:00,
2013-09-13 21:18:00,62.8,53.6,29.82,ESE,110,8.1,8.1,72,0.00,SCT,,0.00,WeatherDisplay:10.37,2013-09-14 04:18:00,
2013-09-13 21:19:00,62.7,53.9,29.82,SE,125,5.8,5.8,73,0.00,SCT,,0.00,WeatherDisplay:10.37,2013-09-14 04:19:00,
2013-09-13 21:20:00,58.8,53.0,29.82,SSE,165,0.0,3.0,81,0.00,CLR,,0.00,WeatherDisplay:10.37,2013-09-14 04:20:00,
2013-09-13 21:22:00,62.6,53.8,29.82,ESE,111,4.0,4.0,73,0.00,SCT,,0.00,WeatherDisplay:10.37,2013-09-14 04:22:00,
2013-09-13 21:23:00,62.5,53.7,29.82,South,175,2.3,2.3,73,0.00,SCT,,0.00,WeatherDisplay:10.37,2013-09-14 04:23:00,
2013-09-13 21:24:00,62.5,53.7,29.82,ESE,103,3.5,3.5,73,0.00,SCT,,0.00,WeatherDisplay:10.37,2013-09-14 04:24:00,
2013-09-13 21:25:00,62.5,53.7,29.82,SE,128,1.0,4.0,73,0.00,SCT,,0.00,WeatherDisplay:10.37,2013-09-14 04:25:00,
2013-09-13 21:27:00,62.5,53.7,29.82,SE,131,1.2,1.2,73,0.00,SCT,,0.00,WeatherDisplay:10.37,2013-09-14 04:27:00,
2013-09-13 21:30:00,62.5,53.7,29.82,SSW,207,2.3,2.3,73,0.00,SCT,,0.00,WeatherDisplay:10.37,2013-09-14 04:30:00,
2013-09-13 21:32:00,62.5,53.7,29.82,SE,129,3.5,3.5,73,0.00,SCT,,0.00,WeatherDisplay:10.37,2013-09-14 04:32:00,
2013-09-13 21:33:00,62.5,53.7,29.82,SSE,149,5.8,5.8,73,0.00,SCT,,0.00,WeatherDisplay:10.37,2013-09-14 04:33:00,
2013-09-13 21:34:00,62.5,53.7,29.82,South,170,5.8,5.8,73,0.00,SCT,,0.00,WeatherDisplay:10.37,2013-09-14 04:34:00,
2013-09-13 21:35:00,62.5,53.7,29.82,South,181,3.5,3.5,73,0.00,SCT,,0.00,WeatherDisplay:10.37,2013-09-14 04:35:00,
2013-09-13 21:38:00,62.4,53.6,29.82,ESE,113,3.5,0.0,73,0.00,SCT,,0.00,WeatherDisplay:10.37,2013-09-14 04:38:00,
2013-09-13 21:40:00,62.4,53.6,29.83,ESE,123,3.5,3.5,73,0.00,SCT,,0.00,WeatherDisplay:10.37,2013-09-14 04:40:00,
2013-09-13 21:41:00,62.4,53.6,29.83,ESE,113,3.5,3.5,73,0.00,SCT,,0.00,WeatherDisplay:10.37,2013-09-14 04:41:00,
2013-09-13 21:44:00,62.4,53.6,29.82,ESE,115,4.6,4.6,73,0.00,SCT,,0.00,WeatherDisplay:10.37,2013-09-14 04:44:00,
2013-09-13 21:45:00,62.4,53.6,29.83,ESE,121,3.5,0.0,73,0.00,SCT,,0.00,WeatherDisplay:10.37,2013-09-14 04:45:00,
2013-09-13 21:46:00,62.4,53.6,29.82,East,93,4.0,4.0,73,0.00,SCT,,0.00,WeatherDisplay:10.37,2013-09-14 04:46:00,
2013-09-13 21:47:00,62.4,54.0,29.82,ESE,121,6.9,6.9,74,0.00,SCT,,0.00,WeatherDisplay:10.37,2013-09-14 04:47:00,
2013-09-13 21:49:00,62.4,54.0,29.82,East,93,6.9,6.9,74,0.00,SCT,,0.00,WeatherDisplay:10.37,2013-09-14 04:49:00,
2013-09-13 21:50:00,62.4,53.6,29.82,SSW,204,2.3,2.3,73,0.00,SCT,,0.00,WeatherDisplay:10.37,2013-09-14 04:50:00,
2013-09-13 21:52:00,62.4,54.0,29.83,SE,126,2.0,2.0,74,0.00,SCT,,0.00,WeatherDisplay:10.37,2013-09-14 04:52:00,
2013-09-13 21:53:00,62.4,53.6,29.82,SE,132,3.5,3.5,73,0.00,SCT,,0.00,WeatherDisplay:10.37,2013-09-14 04:53:00,
2013-09-13 21:54:00,62.3,53.9,29.83,WSW,246,4.6,4.6,74,0.00,SCT,,0.00,WeatherDisplay:10.37,2013-09-14 04:54:00,
2013-09-13 21:55:00,58.9,53.1,29.82,ESE,117,0.0,2.0,81,0.00,CLR,,0.00,WeatherDisplay:10.37,2013-09-14 04:55:00,
2013-09-13 21:56:00,62.3,53.9,29.82,ESE,123,4.6,4.6,74,0.00,SCT,,0.00,WeatherDisplay:10.37,2013-09-14 04:56:00,
2013-09-13 21:57:00,62.2,53.8,29.82,South,188,10.4,10.4,74,0.00,SCT,,0.00,WeatherDisplay:10.37,2013-09-14 04:57:00,
2013-09-13 21:58:00,62.2,53.8,29.83,SE,145,10.4,10.4,74,0.00,SCT,,0.00,WeatherDisplay:10.37,2013-09-14 04:58:00,
2013-09-13 21:59:00,62.1,53.7,29.82,SE,136,9.2,9.2,74,0.00,SCT,,0.00,WeatherDisplay:10.37,2013-09-14 04:59:00,
2013-09-13 22:00:00,62.0,53.6,29.82,South,171,3.5,3.5,74,0.00,SCT,,0.00,WeatherDisplay:10.37,2013-09-14 05:00:00,
2013-09-13 22:01:00,62.0,53.6,29.82,SE,145,1.2,1.2,74,0.00,SCT,,0.00,WeatherDisplay:10.37,2013-09-14 05:01:00,
2013-09-13 22:04:00,61.8,53.4,29.82,SSE,153,3.5,3.5,74,0.00,SCT,,0.00,WeatherDisplay:10.37,2013-09-14 05:04:00,
2013-09-13 22:05:00,61.7,53.7,29.82,SSE,153,3.5,0.0,75,0.00,SCT,,0.00,WeatherDisplay:10.37,2013-09-14 05:05:00,
2013-09-13 22:07:00,61.7,53.3,29.82,SE,134,5.8,5.8,74,0.00,SCT,,0.00,WeatherDisplay:10.37,2013-09-14 05:07:00,
2013-09-13 22:10:00,61.7,53.3,29.82,ESE,114,6.9,6.9,74,0.00,SCT,,0.00,WeatherDisplay:10.37,2013-09-14 05:10:00,
2013-09-13 22:12:00,61.7,53.7,29.82,SE,142,3.0,3.0,75,0.00,SCT,,0.00,WeatherDisplay:10.37,2013-09-14 05:12:00,
2013-09-13 22:13:00,61.7,53.7,29.82,SE,127,5.8,5.8,75,0.00,SCT,,0.00,WeatherDisplay:10.37,2013-09-14 05:13:00,
2013-09-13 22:15:00,61.7,53.7,29.82,East,95,8.1,8.1,75,0.00,SCT,,0.00,WeatherDisplay:10.37,2013-09-14 05:15:00,
2013-09-13 22:17:00,61.7,53.7,29.82,South,180,5.8,5.8,75,0.00,SCT,,0.00,WeatherDisplay:10.37,2013-09-14 05:17:00,
2013-09-13 22:19:00,61.7,53.7,29.82,SE,129,3.5,3.5,75,0.00,SCT,,0.00,WeatherDisplay:10.37,2013-09-14 05:19:00,
2013-09-13 22:20:00,61.7,53.7,29.82,SE,127,5.8,5.8,75,0.00,SCT,,0.00,WeatherDisplay:10.37,2013-09-14 05:20:00,
2013-09-13 22:22:00,61.7,53.7,29.82,SE,124,3.5,3.5,75,0.00,SCT,,0.00,WeatherDisplay:10.37,2013-09-14 05:22:00,
2013-09-13 22:23:00,61.7,53.7,29.82,SSE,159,6.0,6.0,75,0.00,SCT,,0.00,WeatherDisplay:10.37,2013-09-14 05:23:00,
2013-09-13 22:25:00,61.7,53.7,29.82,SE,127,6.9,6.9,75,0.00,SCT,,0.00,WeatherDisplay:10.37,2013-09-14 05:25:00,
2013-09-13 22:26:00,61.7,53.7,29.82,SE,128,6.9,6.9,75,0.00,SCT,,0.00,WeatherDisplay:10.37,2013-09-14 05:26:00,
2013-09-13 22:28:00,61.7,53.7,29.82,SE,138,5.0,5.0,75,0.00,SCT,,0.00,WeatherDisplay:10.37,2013-09-14 05:28:00,
2013-09-13 22:30:00,61.6,53.6,29.82,SE,125,3.5,3.5,75,0.00,SCT,,0.00,WeatherDisplay:10.37,2013-09-14 05:30:00,
2013-09-13 22:31:00,61.6,53.6,29.82,SE,124,3.5,3.5,75,0.00,SCT,,0.00,WeatherDisplay:10.37,2013-09-14 05:31:00,
2013-09-13 22:32:00,61.6,53.6,29.82,SE,127,3.5,3.5,75,0.00,SCT,,0.00,WeatherDisplay:10.37,2013-09-14 05:32:00,
2013-09-13 22:33:00,61.6,53.6,29.82,SE,127,3.5,3.5,75,0.00,SCT,,0.00,WeatherDisplay:10.37,2013-09-14 05:33:00,
2013-09-13 22:35:00,61.6,53.6,29.82,East,97,9.2,9.2,75,0.00,SCT,,0.00,WeatherDisplay:10.37,2013-09-14 05:35:00,
2013-09-13 22:38:00,61.3,53.3,29.83,ESE,114,3.5,3.5,75,0.00,SCT,,0.00,WeatherDisplay:10.37,2013-09-14 05:38:00,
2013-09-13 22:39:00,61.3,53.3,29.83,ESE,114,3.5,3.5,75,0.00,SCT,,0.00,WeatherDisplay:10.37,2013-09-14 05:39:00,
2013-09-13 22:40:00,61.3,53.3,29.82,ESE,114,4.6,4.6,75,0.00,SCT,,0.00,WeatherDisplay:10.37,2013-09-14 05:40:00,
2013-09-13 22:41:00,61.3,53.3,29.83,ESE,116,3.5,3.5,75,0.00,SCT,,0.00,WeatherDisplay:10.37,2013-09-14 05:41:00,
2013-09-13 22:44:00,61.3,53.3,29.83,East,94,2.3,2.3,75,0.00,SCT,,0.00,WeatherDisplay:10.37,2013-09-14 05:44:00,
2013-09-13 22:45:00,58.9,53.4,29.83,SE,135,0.0,3.0,82,0.00,CLR,,0.00,WeatherDisplay:10.37,2013-09-14 05:45:00,
2013-09-13 22:46:00,61.2,53.6,29.83,NE,45,2.3,2.3,76,0.00,SCT,,0.00,WeatherDisplay:10.37,2013-09-14 05:46:00,
2013-09-13 22:48:00,61.2,53.2,29.83,SSE,149,0.0,0.3,75,0.00,SCT,,0.00,WeatherDisplay:10.37,2013-09-14 05:48:00,
2013-09-13 22:49:00,61.2,53.6,29.83,SE,133,6.9,6.9,76,0.00,SCT,,0.00,WeatherDisplay:10.37,2013-09-14 05:49:00,
2013-09-13 22:50:00,58.9,53.4,29.83,SSE,147,0.0,3.0,82,0.00,CLR,,0.00,WeatherDisplay:10.37,2013-09-14 05:50:00,
2013-09-13 22:51:00,61.1,53.1,29.83,ESE,113,3.5,3.5,75,0.00,SCT,,0.00,WeatherDisplay:10.37,2013-09-14 05:51:00,
2013-09-13 22:53:00,61.2,53.6,29.83,East,88,3.5,3.5,76,0.00,SCT,,0.00,WeatherDisplay:10.37,2013-09-14 05:53:00,
2013-09-13 22:54:00,61.1,53.5,29.83,SE,142,2.3,2.3,76,0.00,SCT,,0.00,WeatherDisplay:10.37,2013-09-14 05:54:00,
2013-09-13 22:55:00,61.1,53.5,29.83,SE,142,2.3,2.3,76,0.00,SCT,,0.00,WeatherDisplay:10.37,2013-09-14 05:55:00,
2013-09-13 22:56:00,61.0,53.4,29.83,South,180,2.0,2.0,76,0.00,SCT,,0.00,WeatherDisplay:10.37,2013-09-14 05:56:00,
2013-09-13 22:57:00,60.9,53.3,29.83,ESE,105,5.8,5.8,76,0.00,SCT,,0.00,WeatherDisplay:10.37,2013-09-14 05:57:00,
2013-09-13 22:58:00,60.9,53.3,29.83,SE,134,5.8,5.8,76,0.00,SCT,,0.00,WeatherDisplay:10.37,2013-09-14 05:58:00,
2013-09-13 23:00:00,60.9,53.3,29.83,South,182,3.5,3.5,76,0.00,SCT,,0.00,WeatherDisplay:10.37,2013-09-14 06:00:00,
2013-09-13 23:01:00,60.9,53.3,29.83,SSE,164,3.5,3.5,76,0.00,SCT,,0.00,WeatherDisplay:10.37,2013-09-14 06:01:00,
2013-09-13 23:03:00,60.8,53.5,29.83,South,181,1.2,1.2,77,0.00,SCT,,0.00,WeatherDisplay:10.37,2013-09-14 06:03:00,
2013-09-13 23:05:00,60.8,53.2,29.83,SSE,148,7.0,7.0,76,0.00,SCT,,0.00,WeatherDisplay:10.37,2013-09-14 06:05:00,
2013-09-13 23:06:00,60.7,53.4,29.83,SSE,164,6.9,6.9,77,0.00,SCT,,0.00,WeatherDisplay:10.37,2013-09-14 06:06:00,
2013-09-13 23:08:00,60.7,53.1,29.83,ESE,123,5.8,5.8,76,0.00,SCT,,0.00,WeatherDisplay:10.37,2013-09-14 06:08:00,
2013-09-13 23:10:00,60.7,53.1,29.83,SSE,159,3.5,3.5,76,0.00,SCT,,0.00,WeatherDisplay:10.37,2013-09-14 06:10:00,
2013-09-13 23:11:00,60.7,53.1,29.83,South,178,4.6,4.6,76,0.00,SCT,,0.00,WeatherDisplay:10.37,2013-09-14 06:11:00,
2013-09-13 23:12:00,60.7,53.1,29.83,SSW,213,4.6,4.6,76,0.00,SCT,,0.00,WeatherDisplay:10.37,2013-09-14 06:12:00,
2013-09-13 23:13:00,60.7,53.4,29.83,SW,216,3.5,3.5,77,0.00,SCT,,0.00,WeatherDisplay:10.37,2013-09-14 06:13:00,
2013-09-13 23:14:00,60.6,53.0,29.83,SE,139,2.3,2.3,76,0.00,SCT,,0.00,WeatherDisplay:10.37,2013-09-14 06:14:00,
2013-09-13 23:16:00,60.5,53.3,29.83,SSW,210,2.3,2.3,77,0.00,SCT,,0.00,WeatherDisplay:10.37,2013-09-14 06:16:00,
2013-09-13 23:17:00,60.4,53.2,29.83,SW,214,2.3,2.3,77,0.00,SCT,,0.00,WeatherDisplay:10.37,2013-09-14 06:17:00,
2013-09-13 23:18:00,60.4,53.2,29.83,SW,214,1.2,1.2,77,0.00,SCT,,0.00,WeatherDisplay:10.37,2013-09-14 06:18:00,
2013-09-13 23:19:00,60.4,53.2,29.83,South,181,3.0,3.0,77,0.00,SCT,,0.00,WeatherDisplay:10.37,2013-09-14 06:19:00,
2013-09-13 23:22:00,60.3,53.1,29.83,East,87,7.0,7.0,77,0.00,SCT,,0.00,WeatherDisplay:10.37,2013-09-14 06:22:00,
2013-09-13 23:23:00,60.3,53.1,29.83,SE,136,6.9,6.9,77,0.00,SCT,,0.00,WeatherDisplay:10.37,2013-09-14 06:23:00,
2013-09-13 23:24:00,60.3,53.4,29.83,WSW,245,3.5,3.5,78,0.00,SCT,,0.00,WeatherDisplay:10.37,2013-09-14 06:24:00,
2013-09-13 23:27:00,60.4,53.5,29.83,South,169,4.0,4.0,78,0.00,SCT,,0.00,WeatherDisplay:10.37,2013-09-14 06:27:00,
2013-09-13 23:28:00,60.3,53.4,29.83,SSE,161,6.9,6.9,78,0.00,SCT,,0.00,WeatherDisplay:10.37,2013-09-14 06:28:00,
2013-09-13 23:29:00,60.3,53.4,29.83,SE,134,6.9,6.9,78,0.00,SCT,,0.00,WeatherDisplay:10.37,2013-09-14 06:29:00,
2013-09-13 23:30:00,60.3,53.4,29.83,South,177,6.9,6.9,78,0.00,SCT,,0.00,WeatherDisplay:10.37,2013-09-14 06:30:00,
2013-09-13 23:32:00,60.4,53.5,29.83,SE,140,5.8,5.8,78,0.00,SCT,,0.00,WeatherDisplay:10.37,2013-09-14 06:32:00,
2013-09-13 23:33:00,60.4,53.5,29.83,SE,124,5.0,5.0,78,0.00,SCT,,0.00,WeatherDisplay:10.37,2013-09-14 06:33:00,
2013-09-13 23:34:00,60.4,53.5,29.83,SE,130,4.6,4.6,78,0.00,SCT,,0.00,WeatherDisplay:10.37,2013-09-14 06:34:00,
2013-09-13 23:37:00,60.5,53.6,29.83,SE,127,2.3,2.3,78,0.00,SCT,,0.00,WeatherDisplay:10.37,2013-09-14 06:37:00,
2013-09-13 23:39:00,60.6,53.7,29.83,SSE,154,3.5,3.5,78,0.00,SCT,,0.00,WeatherDisplay:10.37,2013-09-14 06:39:00,
2013-09-13 23:40:00,60.6,53.7,29.83,SSE,158,11.5,11.5,78,0.00,SCT,,0.00,WeatherDisplay:10.37,2013-09-14 06:40:00,
2013-09-13 23:42:00,60.6,53.7,29.83,SSE,163,6.9,6.9,78,0.00,SCT,,0.00,WeatherDisplay:10.37,2013-09-14 06:42:00,
2013-09-13 23:44:00,60.6,53.7,29.83,SSW,195,5.8,5.8,78,0.00,SCT,,0.00,WeatherDisplay:10.37,2013-09-14 06:44:00,
2013-09-13 23:45:00,60.6,53.7,29.83,SSW,195,5.8,5.8,78,0.00,SCT,,0.00,WeatherDisplay:10.37,2013-09-14 06:45:00,
2013-09-13 23:49:00,60.6,53.7,29.83,WSW,243,1.2,1.9,78,0.00,SCT,,0.00,WeatherDisplay:10.37,2013-09-14 06:49:00,
2013-09-13 23:50:00,60.6,53.3,29.83,SE,125,5.8,5.8,77,0.00,SCT,,0.00,WeatherDisplay:10.37,2013-09-14 06:50:00,
2013-09-13 23:51:00,60.6,53.7,29.83,SE,127,3.5,3.5,78,0.00,SCT,,0.00,WeatherDisplay:10.37,2013-09-14 06:51:00,
2013-09-13 23:53:00,60.5,53.6,29.83,SSE,167,5.8,5.8,78,0.00,SCT,,0.00,WeatherDisplay:10.37,2013-09-14 06:53:00,
2013-09-13 23:55:00,60.5,53.6,29.82,ESE,115,3.5,3.5,78,0.00,SCT,,0.00,WeatherDisplay:10.37,2013-09-14 06:55:00,
2013-09-13 23:56:00,60.4,53.5,29.83,East,100,3.5,3.5,78,0.00,SCT,,0.00,WeatherDisplay:10.37,2013-09-14 06:56:00,
2013-09-13 23:57:00,60.4,53.5,29.83,SSE,148,5.8,5.8,78,0.00,SCT,,0.00,WeatherDisplay:10.37,2013-09-14 06:57:00,